Time,TemperatureF,DewpointF,PressureIn,WindDirection,WindDirectionDegrees,WindSpeedMPH,WindSpeedGustMPH,Humidity,HourlyPrecipIn,Conditions,Clouds,dailyrainin,SoftwareType,DateUTC
2013-06-06 00:03:00,52.5,44.4,29.95,SSE,160,5.4,8.1,74,0.00,RA,,0.00,WeatherDisplay:10.37,2013-06-06 05:03:00,
2013-06-06 00:04:00,52.5,44.1,29.95,SSE,157,4.0,6.9,73,0.00,RA,,0.00,WeatherDisplay:10.37,2013-06-06 05:04:00,
2013-06-06 00:05:00,52.5,44.1,29.95,SW,216,3.6,6.9,73,0.00,RA,,0.00,WeatherDisplay:10.37,2013-06-06 05:05:00,
2013-06-06 00:08:00,52.5,44.1,29.95,SE,136,4.0,7.3,73,0.00,RA,,0.00,WeatherDisplay:10.37,2013-06-06 05:08:00,
2013-06-06 00:09:00,52.5,44.1,29.95,SE,128,4.4,6.0,73,0.00,RA,,0.00,WeatherDisplay:10.37,2013-06-06 05:09:00,
2013-06-06 00:10:00,52.5,44.1,29.95,SSE,161,3.0,6.9,73,0.00,CLR,,0.00,WeatherDisplay:10.37,2013-06-06 05:10:00,
2013-06-06 00:14:00,52.5,44.1,29.95,SE,127,1.9,3.5,73,0.00,CLR,,0.00,WeatherDisplay:10.37,2013-06-06 05:14:00,
2013-06-06 00:15:00,52.5,44.1,29.95,ESE,119,4.0,8.1,73,0.00,CLR,,0.00,WeatherDisplay:10.37,2013-06-06 05:15:00,
2013-06-06 00:19:00,52.5,44.1,29.95,SSE,157,4.9,6.9,73,0.00,CLR,,0.00,WeatherDisplay:10.37,2013-06-06 05:19:00,
2013-06-06 00:20:00,52.5,44.1,29.95,East,83,3.2,6.9,73,0.00,CLR,,0.00,WeatherDisplay:10.37,2013-06-06 05:20:00,
2013-06-06 00:21:00,52.5,44.1,29.95,South,191,3.4,5.8,73,0.00,CLR,,0.00,WeatherDisplay:10.37,2013-06-06 05:21:00,
2013-06-06 00:24:00,52.6,44.2,29.95,SSE,148,5.3,8.1,73,0.00,CLR,,0.00,WeatherDisplay:10.37,2013-06-06 05:24:00,
2013-06-06 00:25:00,52.6,44.2,29.95,SE,133,5.9,6.9,73,0.00,CLR,,0.00,WeatherDisplay:10.37,2013-06-06 05:25:00,
2013-06-06 00:26:00,52.5,44.1,29.95,ESE,119,4.1,9.2,73,0.00,CLR,,0.00,WeatherDisplay:10.37,2013-06-06 05:26:00,
2013-06-06 00:30:00,52.5,44.1,29.95,South,186,4.0,6.9,73,0.00,CLR,,0.00,WeatherDisplay:10.37,2013-06-06 05:30:00,
2013-06-06 00:31:00,52.5,44.1,29.95,SE,141,4.9,6.9,73,0.00,CLR,,0.00,WeatherDisplay:10.37,2013-06-06 05:31:00,
2013-06-06 00:35:00,52.6,44.2,29.95,South,186,2.6,4.6,73,0.00,CLR,,0.00,WeatherDisplay:10.37,2013-06-06 05:35:00,
2013-06-06 00:36:00,52.5,44.1,29.95,SSW,203,2.1,4.6,73,0.00,CLR,,0.00,WeatherDisplay:10.37,2013-06-06 05:36:00,
2013-06-06 00:40:00,52.5,44.1,29.95,SW,220,2.1,3.5,73,0.00,CLR,,0.00,WeatherDisplay:10.37,2013-06-06 05:40:00,
2013-06-06 00:41:00,52.5,44.1,29.95,SE,133,2.4,6.0,73,0.00,CLR,,0.00,WeatherDisplay:10.37,2013-06-06 05:41:00,
2013-06-06 00:45:00,52.5,44.4,29.95,SSE,150,1.3,3.5,74,0.00,CLR,,0.00,WeatherDisplay:10.37,2013-06-06 05:45:00,
2013-06-06 00:46:00,52.5,44.4,29.95,SSE,155,1.3,3.5,74,0.00,CLR,,0.00,WeatherDisplay:10.37,2013-06-06 05:46:00,
2013-06-06 00:47:00,52.5,44.4,29.95,SSW,213,2.6,5.8,74,0.00,CLR,,0.00,WeatherDisplay:10.37,2013-06-06 05:47:00,
2013-06-06 00:51:00,52.4,44.4,29.95,SSE,160,2.2,8.1,74,0.01,RA,,0.01,WeatherDisplay:10.37,2013-06-06 05:51:00,
2013-06-06 00:52:00,52.4,44.4,29.95,SSE,148,3.1,4.0,74,0.01,RA,,0.01,WeatherDisplay:10.37,2013-06-06 05:52:00,
2013-06-06 00:56:00,52.3,44.6,29.95,South,176,1.5,3.5,75,0.01,RA,,0.01,WeatherDisplay:10.37,2013-06-06 05:56:00,
2013-06-06 00:57:00,52.3,44.6,29.95,SSE,164,1.2,2.3,75,0.01,RA,,0.01,WeatherDisplay:10.37,2013-06-06 05:57:00,
2013-06-06 01:01:00,52.2,44.5,29.95,SSE,158,2.0,3.7,75,0.02,RA,,0.02,WeatherDisplay:10.37,2013-06-06 06:01:00,
2013-06-06 01:02:00,52.2,44.5,29.95,SSE,164,2.7,3.5,75,0.02,RA,,0.02,WeatherDisplay:10.37,2013-06-06 06:02:00,
2013-06-06 01:03:00,52.1,44.8,29.95,SSE,152,2.0,3.5,76,0.02,RA,,0.02,WeatherDisplay:10.37,2013-06-06 06:03:00,
2013-06-06 01:07:00,52.0,44.7,29.94,SSE,152,2.7,3.5,76,0.02,RA,,0.02,WeatherDisplay:10.37,2013-06-06 06:07:00,
2013-06-06 01:08:00,52.0,44.7,29.95,SSE,147,1.7,3.5,76,0.02,RA,,0.02,WeatherDisplay:10.37,2013-06-06 06:08:00,
2013-06-06 01:12:00,52.0,44.7,29.94,ESE,117,0.0,0.0,76,0.02,CLR,,0.02,WeatherDisplay:10.37,2013-06-06 06:12:00,
2013-06-06 01:13:00,52.0,44.7,29.94,ESE,107,0.2,1.7,76,0.02,CLR,,0.02,WeatherDisplay:10.37,2013-06-06 06:13:00,
2013-06-06 01:18:00,51.9,44.9,29.94,SSE,151,2.0,3.0,77,0.03,RA,,0.03,WeatherDisplay:10.37,2013-06-06 06:18:00,
2013-06-06 01:19:00,51.8,44.8,29.94,SSW,198,2.0,3.5,77,0.03,RA,,0.03,WeatherDisplay:10.37,2013-06-06 06:19:00,
2013-06-06 01:23:00,51.8,44.8,29.94,ENE,61,2.2,4.6,77,0.03,RA,,0.03,WeatherDisplay:10.37,2013-06-06 06:23:00,
2013-06-06 01:24:00,51.8,45.2,29.94,SE,140,1.7,3.5,78,0.03,RA,,0.03,WeatherDisplay:10.37,2013-06-06 06:24:00,
2013-06-06 01:28:00,51.8,45.2,29.94,SE,130,1.6,3.2,78,0.03,CLR,,0.03,WeatherDisplay:10.37,2013-06-06 06:28:00,
2013-06-06 01:29:00,51.8,45.2,29.94,SE,124,1.4,3.5,78,0.03,CLR,,0.03,WeatherDisplay:10.37,2013-06-06 06:29:00,
2013-06-06 01:33:00,51.8,45.2,29.94,SE,134,1.0,2.3,78,0.03,CLR,,0.03,WeatherDisplay:10.37,2013-06-06 06:33:00,
2013-06-06 01:34:00,51.8,45.2,29.94,SSW,200,0.6,1.3,78,0.03,CLR,,0.03,WeatherDisplay:10.37,2013-06-06 06:34:00,
2013-06-06 01:38:00,51.7,45.1,29.93,ESE,120,1.9,3.5,78,0.03,CLR,,0.03,WeatherDisplay:10.37,2013-06-06 06:38:00,
2013-06-06 01:39:00,51.7,45.4,29.93,SE,130,2.2,3.5,79,0.03,CLR,,0.03,WeatherDisplay:10.37,2013-06-06 06:39:00,
2013-06-06 01:43:00,51.8,45.5,29.93,SSE,154,1.3,2.3,79,0.03,CLR,,0.03,WeatherDisplay:10.37,2013-06-06 06:43:00,
2013-06-06 01:44:00,51.7,45.4,29.93,SSE,158,1.2,2.5,79,0.03,CLR,,0.03,WeatherDisplay:10.37,2013-06-06 06:44:00,
2013-06-06 01:45:00,51.8,45.5,29.93,SSE,150,1.4,2.3,79,0.03,CLR,,0.03,WeatherDisplay:10.37,2013-06-06 06:45:00,
2013-06-06 01:48:00,51.7,45.4,29.93,East,97,2.7,3.5,79,0.03,CLR,,0.03,WeatherDisplay:10.37,2013-06-06 06:48:00,
2013-06-06 01:49:00,51.7,45.4,29.93,NE,49,0.9,3.5,79,0.03,CLR,,0.03,WeatherDisplay:10.37,2013-06-06 06:49:00,
2013-06-06 01:50:00,51.7,45.4,29.93,SE,133,0.8,2.7,79,0.03,CLR,,0.03,WeatherDisplay:10.37,2013-06-06 06:50:00,
2013-06-06 01:53:00,51.6,45.3,29.93,SE,137,1.5,2.3,79,0.02,CLR,,0.03,WeatherDisplay:10.37,2013-06-06 06:53:00,
2013-06-06 01:54:00,51.7,45.4,29.93,SSE,154,0.4,1.1,79,0.02,CLR,,0.03,WeatherDisplay:10.37,2013-06-06 06:54:00,
2013-06-06 01:55:00,51.6,45.3,29.93,SSE,148,0.4,2.0,79,0.02,CLR,,0.03,WeatherDisplay:10.37,2013-06-06 06:55:00,
2013-06-06 01:58:00,51.7,45.4,29.93,ESE,121,0.9,2.3,79,0.02,CLR,,0.03,WeatherDisplay:10.37,2013-06-06 06:58:00,
2013-06-06 01:59:00,51.6,45.3,29.93,ESE,109,0.8,2.3,79,0.01,CLR,,0.03,WeatherDisplay:10.37,2013-06-06 06:59:00,
2013-06-06 02:00:00,51.7,45.4,29.93,East,90,0.9,1.1,79,0.01,CLR,,0.03,WeatherDisplay:10.37,2013-06-06 07:00:00,
2013-06-06 02:02:00,51.6,45.3,29.93,SSE,151,1.9,3.5,79,0.01,CLR,,0.03,WeatherDisplay:10.37,2013-06-06 07:02:00,
2013-06-06 02:03:00,51.6,45.3,29.93,East,88,1.0,2.3,79,0.01,CLR,,0.03,WeatherDisplay:10.37,2013-06-06 07:03:00,
2013-06-06 02:04:00,51.6,45.3,29.93,SE,128,0.7,2.3,79,0.01,CLR,,0.03,WeatherDisplay:10.37,2013-06-06 07:04:00,
2013-06-06 02:05:00,51.6,45.3,29.93,SSE,147,0.9,2.3,79,0.01,CLR,,0.03,WeatherDisplay:10.37,2013-06-06 07:05:00,
2013-06-06 02:08:00,51.7,45.7,29.93,East,88,0.6,1.3,80,0.01,CLR,,0.03,WeatherDisplay:10.37,2013-06-06 07:08:00,
2013-06-06 02:09:00,51.6,45.6,29.93,SE,134,1.3,2.3,80,0.01,CLR,,0.03,WeatherDisplay:10.37,2013-06-06 07:09:00,
2013-06-06 02:10:00,51.6,45.6,29.93,ESE,121,0.7,2.3,80,0.01,CLR,,0.03,WeatherDisplay:10.37,2013-06-06 07:10:00,
2013-06-06 02:13:00,51.6,45.6,29.93,ESE,121,0.0,0.0,80,0.01,CLR,,0.03,WeatherDisplay:10.37,2013-06-06 07:13:00,
2013-06-06 02:14:00,51.7,45.7,29.93,ESE,121,0.0,0.0,80,0.01,CLR,,0.03,WeatherDisplay:10.37,2013-06-06 07:14:00,
2013-06-06 02:15:00,51.6,45.6,29.93,ESE,121,0.0,0.0,80,0.00,CLR,,0.03,WeatherDisplay:10.37,2013-06-06 07:15:00,
2013-06-06 02:18:00,51.6,45.6,29.92,ESE,121,0.0,0.0,80,0.00,CLR,,0.03,WeatherDisplay:10.37,2013-06-06 07:18:00,
2013-06-06 02:19:00,51.6,45.6,29.92,ESE,121,0.0,0.0,80,0.00,CLR,,0.03,WeatherDisplay:10.37,2013-06-06 07:19:00,
2013-06-06 02:20:00,51.6,45.6,29.92,ESE,121,0.0,0.0,80,0.00,CLR,,0.03,WeatherDisplay:10.37,2013-06-06 07:20:00,
2013-06-06 02:21:00,51.6,45.6,29.92,ESE,121,0.0,0.0,80,0.00,CLR,,0.03,WeatherDisplay:10.37,2013-06-06 07:21:00,
2013-06-06 02:23:00,51.6,45.6,29.92,SSE,155,1.5,1.5,80,0.00,CLR,,0.03,WeatherDisplay:10.37,2013-06-06 07:23:00,
2013-06-06 02:24:00,51.6,45.6,29.92,SE,136,1.1,1.1,80,0.00,CLR,,0.03,WeatherDisplay:10.37,2013-06-06 07:24:00,
2013-06-06 02:25:00,51.6,45.6,29.92,SSE,157,0.6,1.4,80,0.00,CLR,,0.03,WeatherDisplay:10.37,2013-06-06 07:25:00,
2013-06-06 02:26:00,51.6,45.6,29.92,South,171,0.9,2.3,80,0.00,CLR,,0.03,WeatherDisplay:10.37,2013-06-06 07:26:00,
2013-06-06 02:27:00,51.6,45.6,29.92,SSE,165,0.0,1.1,80,0.00,CLR,,0.03,WeatherDisplay:10.37,2013-06-06 07:27:00,
2013-06-06 02:29:00,51.6,45.6,29.92,SSE,165,0.0,0.0,80,0.00,CLR,,0.03,WeatherDisplay:10.37,2013-06-06 07:29:00,
2013-06-06 02:30:00,51.6,45.6,29.92,SSE,165,0.0,0.0,80,0.00,CLR,,0.03,WeatherDisplay:10.37,2013-06-06 07:30:00,
2013-06-06 02:31:00,51.6,45.6,29.92,SSE,165,0.0,0.0,80,0.00,CLR,,0.03,WeatherDisplay:10.37,2013-06-06 07:31:00,
2013-06-06 02:32:00,51.7,45.7,29.92,SSE,165,0.0,0.0,80,0.00,CLR,,0.03,WeatherDisplay:10.37,2013-06-06 07:32:00,
2013-06-06 02:34:00,51.6,45.6,29.93,SSE,165,0.0,0.0,80,0.00,CLR,,0.03,WeatherDisplay:10.37,2013-06-06 07:34:00,
2013-06-06 02:35:00,51.6,45.6,29.93,SSE,165,0.0,0.0,80,0.00,CLR,,0.03,WeatherDisplay:10.37,2013-06-06 07:35:00,
2013-06-06 02:37:00,51.7,45.7,29.93,SSE,165,0.0,0.0,80,0.00,CLR,,0.03,WeatherDisplay:10.37,2013-06-06 07:37:00,
2013-06-06 02:39:00,51.6,45.6,29.92,North,10,0.0,0.2,80,0.00,CLR,,0.03,WeatherDisplay:10.37,2013-06-06 07:39:00,
2013-06-06 02:40:00,51.5,45.5,29.92,NE,37,0.1,0.7,80,0.00,CLR,,0.03,WeatherDisplay:10.37,2013-06-06 07:40:00,
2013-06-06 02:42:00,51.6,45.6,29.93,NE,35,1.1,1.1,80,0.00,CLR,,0.03,WeatherDisplay:10.37,2013-06-06 07:42:00,
2013-06-06 02:45:00,51.5,45.5,29.93,NW,326,0.7,1.5,80,0.00,CLR,,0.03,WeatherDisplay:10.37,2013-06-06 07:45:00,
2013-06-06 02:47:00,51.6,45.6,29.93,NNW,335,1.3,1.7,80,0.00,CLR,,0.03,WeatherDisplay:10.37,2013-06-06 07:47:00,
2013-06-06 02:48:00,51.6,45.6,29.93,NNW,336,1.2,1.5,80,0.00,CLR,,0.03,WeatherDisplay:10.37,2013-06-06 07:48:00,
2013-06-06 02:50:00,51.6,45.6,29.93,North,356,1.6,2.3,80,0.00,CLR,,0.03,WeatherDisplay:10.37,2013-06-06 07:50:00,
2013-06-06 02:52:00,51.5,45.5,29.93,North,350,1.4,2.3,80,0.00,CLR,,0.03,WeatherDisplay:10.37,2013-06-06 07:52:00,
2013-06-06 02:53:00,51.6,45.6,29.93,North,352,1.3,2.3,80,0.00,CLR,,0.03,WeatherDisplay:10.37,2013-06-06 07:53:00,
2013-06-06 02:55:00,51.6,45.6,29.93,North,6,1.6,3.5,80,0.00,CLR,,0.03,WeatherDisplay:10.37,2013-06-06 07:55:00,
2013-06-06 02:57:00,51.5,45.5,29.93,NW,320,0.4,1.1,80,0.00,CLR,,0.03,WeatherDisplay:10.37,2013-06-06 07:57:00,
2013-06-06 02:58:00,51.5,45.5,29.93,NNW,337,0.7,1.9,80,0.00,CLR,,0.03,WeatherDisplay:10.37,2013-06-06 07:58:00,
2013-06-06 03:00:00,51.6,45.6,29.93,NNW,335,1.1,2.3,80,0.00,CLR,,0.03,WeatherDisplay:10.37,2013-06-06 08:00:00,
2013-06-06 03:02:00,51.5,45.5,29.93,North,354,1.1,2.3,80,0.00,CLR,,0.03,WeatherDisplay:10.37,2013-06-06 08:02:00,
2013-06-06 03:03:00,51.6,45.6,29.93,NW,305,1.4,2.3,80,0.00,CLR,,0.03,WeatherDisplay:10.37,2013-06-06 08:03:00,
2013-06-06 03:04:00,51.5,45.5,29.93,NW,305,0.4,2.3,80,0.00,CLR,,0.03,WeatherDisplay:10.37,2013-06-06 08:04:00,
2013-06-06 03:05:00,51.5,45.5,29.93,NW,305,0.0,0.0,80,0.00,CLR,,0.03,WeatherDisplay:10.37,2013-06-06 08:05:00,
2013-06-06 03:08:00,51.5,45.5,29.93,NW,305,0.0,0.0,80,0.00,CLR,,0.03,WeatherDisplay:10.37,2013-06-06 08:08:00,
2013-06-06 03:09:00,51.6,45.6,29.93,NW,305,0.0,0.0,80,0.00,CLR,,0.03,WeatherDisplay:10.37,2013-06-06 08:09:00,
2013-06-06 03:10:00,51.6,45.6,29.93,NW,305,0.0,0.0,80,0.00,CLR,,0.03,WeatherDisplay:10.37,2013-06-06 08:10:00,
2013-06-06 03:13:00,51.5,45.5,29.93,NW,305,0.0,0.0,80,0.00,CLR,,0.03,WeatherDisplay:10.37,2013-06-06 08:13:00,
2013-06-06 03:14:00,51.5,45.5,29.93,NW,305,0.0,0.0,80,0.00,CLR,,0.03,WeatherDisplay:10.37,2013-06-06 08:14:00,
2013-06-06 03:15:00,51.5,45.5,29.93,NW,305,0.0,0.0,80,0.00,CLR,,0.03,WeatherDisplay:10.37,2013-06-06 08:15:00,
2013-06-06 03:18:00,51.6,45.6,29.93,North,7,0.5,2.1,80,0.00,CLR,,0.03,WeatherDisplay:10.37,2013-06-06 08:18:00,
2013-06-06 03:19:00,51.4,45.4,29.93,NNE,14,0.7,2.3,80,0.00,CLR,,0.03,WeatherDisplay:10.37,2013-06-06 08:19:00,
2013-06-06 03:21:00,51.4,45.8,29.93,NW,309,1.0,1.1,81,0.00,CLR,,0.03,WeatherDisplay:10.37,2013-06-06 08:21:00,
2013-06-06 03:23:00,51.5,45.9,29.93,NW,309,0.0,0.0,81,0.00,CLR,,0.03,WeatherDisplay:10.37,2013-06-06 08:23:00,
2013-06-06 03:24:00,51.5,45.9,29.93,NW,309,0.0,0.0,81,0.00,CLR,,0.03,WeatherDisplay:10.37,2013-06-06 08:24:00,
2013-06-06 03:26:00,51.5,45.9,29.93,NNW,328,1.5,2.3,81,0.00,CLR,,0.03,WeatherDisplay:10.37,2013-06-06 08:26:00,
2013-06-06 03:28:00,51.4,45.8,29.93,NW,320,1.2,2.3,81,0.00,CLR,,0.03,WeatherDisplay:10.37,2013-06-06 08:28:00,
2013-06-06 03:29:00,51.4,45.8,29.93,WNW,295,1.7,2.3,81,0.00,CLR,,0.03,WeatherDisplay:10.37,2013-06-06 08:29:00,
2013-06-06 03:31:00,51.5,45.9,29.93,WNW,287,0.0,0.0,81,0.01,RA,,0.04,WeatherDisplay:10.37,2013-06-06 08:31:00,
2013-06-06 03:33:00,51.4,45.8,29.93,NNE,30,0.5,1.1,81,0.02,RA,,0.05,WeatherDisplay:10.37,2013-06-06 08:33:00,
2013-06-06 03:34:00,51.4,45.8,29.93,North,10,0.7,1.7,81,0.02,RA,,0.06,WeatherDisplay:10.37,2013-06-06 08:34:00,
2013-06-06 03:35:00,51.4,45.8,29.93,North,352,1.7,3.5,81,0.03,RA,,0.06,WeatherDisplay:10.37,2013-06-06 08:35:00,
2013-06-06 03:36:00,51.4,45.8,29.93,North,7,1.5,2.3,81,0.03,RA,,0.06,WeatherDisplay:10.37,2013-06-06 08:36:00,
2013-06-06 03:38:00,51.4,45.8,29.93,NNW,346,0.0,0.0,81,0.03,RA,,0.06,WeatherDisplay:10.37,2013-06-06 08:38:00,
2013-06-06 03:39:00,51.4,45.8,29.93,NNW,346,0.0,0.0,81,0.03,RA,,0.06,WeatherDisplay:10.37,2013-06-06 08:39:00,
2013-06-06 03:40:00,51.4,45.8,29.93,NNW,346,0.0,0.0,81,0.03,RA,,0.07,WeatherDisplay:10.37,2013-06-06 08:40:00,
2013-06-06 03:41:00,51.4,45.8,29.93,NNW,346,0.0,0.0,81,0.04,RA,,0.07,WeatherDisplay:10.37,2013-06-06 08:41:00,
2013-06-06 03:42:00,51.3,45.7,29.93,NNW,346,0.1,0.0,81,0.04,RA,,0.07,WeatherDisplay:10.37,2013-06-06 08:42:00,
2013-06-06 03:43:00,51.3,45.7,29.93,NE,45,0.4,1.1,81,0.04,RA,,0.07,WeatherDisplay:10.37,2013-06-06 08:43:00,
2013-06-06 03:44:00,51.3,45.7,29.93,NE,45,0.0,1.1,81,0.04,RA,,0.07,WeatherDisplay:10.37,2013-06-06 08:44:00,
2013-06-06 03:45:00,51.3,45.7,29.93,East,92,1.8,2.3,81,0.05,RA,,0.08,WeatherDisplay:10.37,2013-06-06 08:45:00,
2013-06-06 03:46:00,51.3,45.7,29.93,East,95,1.7,2.7,81,0.05,RA,,0.08,WeatherDisplay:10.37,2013-06-06 08:46:00,
2013-06-06 03:47:00,51.3,45.7,29.93,East,95,2.1,2.3,81,0.05,RA,,0.08,WeatherDisplay:10.37,2013-06-06 08:47:00,
2013-06-06 03:48:00,51.3,45.7,29.93,East,97,0.9,2.3,81,0.05,RA,,0.08,WeatherDisplay:10.37,2013-06-06 08:48:00,
2013-06-06 03:49:00,51.3,45.7,29.93,ENE,68,0.8,1.1,81,0.05,RA,,0.08,WeatherDisplay:10.37,2013-06-06 08:49:00,
2013-06-06 03:50:00,51.2,45.6,29.93,ENE,68,0.0,0.0,81,0.05,RA,,0.08,WeatherDisplay:10.37,2013-06-06 08:50:00,
2013-06-06 03:52:00,51.2,45.6,29.93,ENE,68,0.0,0.0,81,0.05,RA,,0.08,WeatherDisplay:10.37,2013-06-06 08:52:00,
2013-06-06 03:53:00,51.2,45.6,29.93,ENE,68,0.0,0.0,81,0.05,RA,,0.08,WeatherDisplay:10.37,2013-06-06 08:53:00,
2013-06-06 03:56:00,51.2,45.6,29.93,East,85,0.4,1.1,81,0.06,RA,,0.09,WeatherDisplay:10.37,2013-06-06 08:56:00,
2013-06-06 03:57:00,51.2,45.6,29.93,ESE,107,0.2,0.7,81,0.06,RA,,0.09,WeatherDisplay:10.37,2013-06-06 08:57:00,
2013-06-06 03:58:00,51.2,45.6,29.93,East,85,0.4,1.1,81,0.06,RA,,0.09,WeatherDisplay:10.37,2013-06-06 08:58:00,
2013-06-06 04:01:00,51.2,45.6,29.93,East,96,0.4,1.1,81,0.06,RA,,0.09,WeatherDisplay:10.37,2013-06-06 09:01:00,
2013-06-06 04:02:00,51.2,45.6,29.93,East,96,0.0,0.0,81,0.07,RA,,0.10,WeatherDisplay:10.37,2013-06-06 09:02:00,
2013-06-06 04:03:00,51.2,45.6,29.93,East,96,0.0,0.0,81,0.07,RA,,0.10,WeatherDisplay:10.37,2013-06-06 09:03:00,
2013-06-06 04:06:00,51.2,45.9,29.93,ENE,59,0.0,0.0,82,0.09,RA,,0.12,WeatherDisplay:10.37,2013-06-06 09:06:00,
2013-06-06 04:07:00,51.1,45.8,29.93,ENE,68,0.6,1.1,82,0.09,RA,,0.12,WeatherDisplay:10.37,2013-06-06 09:07:00,
2013-06-06 04:08:00,51.2,45.9,29.93,ENE,68,0.6,1.1,82,0.09,RA,,0.13,WeatherDisplay:10.37,2013-06-06 09:08:00,
2013-06-06 04:09:00,51.2,45.9,29.93,ENE,68,0.0,1.1,82,0.10,RA,,0.13,WeatherDisplay:10.37,2013-06-06 09:09:00,
2013-06-06 04:11:00,51.2,45.9,29.93,East,82,0.8,2.3,82,0.11,RA,,0.14,WeatherDisplay:10.37,2013-06-06 09:11:00,
2013-06-06 04:12:00,51.2,45.9,29.93,East,82,0.7,2.3,82,0.11,RA,,0.14,WeatherDisplay:10.37,2013-06-06 09:12:00,
2013-06-06 04:13:00,51.2,45.9,29.93,East,96,1.2,2.3,82,0.11,RA,,0.14,WeatherDisplay:10.37,2013-06-06 09:13:00,
2013-06-06 04:14:00,51.1,45.8,29.93,ENE,69,0.2,1.1,82,0.11,RA,,0.15,WeatherDisplay:10.37,2013-06-06 09:14:00,
2013-06-06 04:17:00,51.1,45.8,29.93,ESE,102,0.8,2.1,82,0.13,RA,,0.16,WeatherDisplay:10.37,2013-06-06 09:17:00,
2013-06-06 04:18:00,51.1,45.8,29.93,East,85,1.4,3.5,82,0.13,RA,,0.16,WeatherDisplay:10.37,2013-06-06 09:18:00,
2013-06-06 04:19:00,51.1,45.8,29.93,North,11,0.5,2.3,82,0.13,RA,,0.17,WeatherDisplay:10.37,2013-06-06 09:19:00,
2013-06-06 04:22:00,51.1,45.8,29.93,ESE,104,1.0,2.3,82,0.14,RA,,0.18,WeatherDisplay:10.37,2013-06-06 09:22:00,
2013-06-06 04:23:00,51.0,45.7,29.92,ENE,71,0.7,2.3,82,0.15,RA,,0.18,WeatherDisplay:10.37,2013-06-06 09:23:00,
2013-06-06 04:24:00,51.1,45.8,29.93,ENE,71,0.0,1.1,82,0.15,RA,,0.18,WeatherDisplay:10.37,2013-06-06 09:24:00,
2013-06-06 04:27:00,51.1,45.8,29.92,NE,54,1.4,2.3,82,0.15,RA,,0.18,WeatherDisplay:10.37,2013-06-06 09:27:00,
2013-06-06 04:28:00,51.1,45.8,29.92,NNE,21,1.2,2.3,82,0.16,RA,,0.19,WeatherDisplay:10.37,2013-06-06 09:28:00,
2013-06-06 04:29:00,51.1,45.8,29.92,NE,51,1.9,3.4,82,0.16,RA,,0.19,WeatherDisplay:10.37,2013-06-06 09:29:00,
2013-06-06 04:32:00,51.0,45.7,29.92,East,100,2.5,4.6,82,0.15,RA,,0.20,WeatherDisplay:10.37,2013-06-06 09:32:00,
2013-06-06 04:34:00,51.0,45.7,29.92,NNE,21,2.6,3.5,82,0.16,RA,,0.21,WeatherDisplay:10.37,2013-06-06 09:34:00,
2013-06-06 04:38:00,51.0,45.7,29.92,North,10,2.0,3.5,82,0.15,RA,,0.21,WeatherDisplay:10.37,2013-06-06 09:38:00,
2013-06-06 04:39:00,51.0,45.7,29.92,East,88,1.5,3.5,82,0.15,RA,,0.21,WeatherDisplay:10.37,2013-06-06 09:39:00,
2013-06-06 04:40:00,50.9,45.6,29.92,NNE,24,1.5,3.5,82,0.15,RA,,0.21,WeatherDisplay:10.37,2013-06-06 09:40:00,
2013-06-06 04:43:00,50.9,45.6,29.92,West,261,1.0,4.6,82,0.15,RA,,0.22,WeatherDisplay:10.37,2013-06-06 09:43:00,
2013-06-06 04:44:00,50.8,45.5,29.92,NE,49,2.1,4.6,82,0.15,RA,,0.22,WeatherDisplay:10.37,2013-06-06 09:44:00,
2013-06-06 04:45:00,50.7,45.4,29.92,NNE,16,1.2,4.6,82,0.15,RA,,0.22,WeatherDisplay:10.37,2013-06-06 09:45:00,
2013-06-06 04:48:00,50.8,45.8,29.92,NE,52,1.4,3.0,83,0.15,RA,,0.23,WeatherDisplay:10.37,2013-06-06 09:48:00,
2013-06-06 04:49:00,50.8,45.8,29.92,ESE,106,0.5,2.3,83,0.15,RA,,0.23,WeatherDisplay:10.37,2013-06-06 09:49:00,
2013-06-06 04:50:00,50.8,45.8,29.92,East,100,0.5,2.3,83,0.15,RA,,0.23,WeatherDisplay:10.37,2013-06-06 09:50:00,
2013-06-06 04:53:00,50.8,45.8,29.92,East,86,1.6,2.4,83,0.15,RA,,0.23,WeatherDisplay:10.37,2013-06-06 09:53:00,
2013-06-06 04:55:00,50.7,45.7,29.92,ENE,78,2.7,4.6,83,0.15,RA,,0.23,WeatherDisplay:10.37,2013-06-06 09:55:00,
2013-06-06 04:56:00,50.7,45.7,29.92,ENE,66,1.6,4.6,83,0.14,RA,,0.23,WeatherDisplay:10.37,2013-06-06 09:56:00,
2013-06-06 04:58:00,50.8,45.8,29.92,East,92,1.8,4.4,83,0.14,,,0.23,WeatherDisplay:10.37,2013-06-06 09:58:00,
2013-06-06 05:00:00,50.8,45.8,29.92,ESE,117,1.9,4.6,83,0.14,CLR,,0.23,WeatherDisplay:10.37,2013-06-06 10:00:00,
2013-06-06 05:01:00,50.7,45.7,29.92,ENE,72,2.9,5.8,83,0.14,CLR,,0.23,WeatherDisplay:10.37,2013-06-06 10:01:00,
2013-06-06 05:04:00,50.7,45.7,29.92,NE,52,3.5,6.9,83,0.13,CLR,,0.23,WeatherDisplay:10.37,2013-06-06 10:04:00,
2013-06-06 05:05:00,50.7,45.7,29.92,SSE,164,1.0,2.3,83,0.12,CLR,,0.23,WeatherDisplay:10.37,2013-06-06 10:05:00,
2013-06-06 05:06:00,50.7,45.7,29.92,NE,54,1.0,2.3,83,0.11,CLR,,0.23,WeatherDisplay:10.37,2013-06-06 10:06:00,
2013-06-06 05:09:00,50.6,45.6,29.92,ENE,58,1.3,5.8,83,0.10,CLR,,0.23,WeatherDisplay:10.37,2013-06-06 10:09:00,
2013-06-06 05:10:00,50.5,45.5,29.92,East,88,2.5,2.9,83,0.10,CLR,,0.23,WeatherDisplay:10.37,2013-06-06 10:10:00,
2013-06-06 05:11:00,50.6,45.6,29.93,SE,134,3.1,5.8,83,0.09,CLR,,0.23,WeatherDisplay:10.37,2013-06-06 10:11:00,
2013-06-06 05:13:00,50.6,45.6,29.93,East,96,1.1,2.3,83,0.09,CLR,,0.23,WeatherDisplay:10.37,2013-06-06 10:13:00,
2013-06-06 05:14:00,50.4,45.4,29.93,NNE,16,0.8,4.6,83,0.09,CLR,,0.23,WeatherDisplay:10.37,2013-06-06 10:14:00,
2013-06-06 05:16:00,50.4,45.4,29.93,NE,37,1.4,3.2,83,0.08,CLR,,0.23,WeatherDisplay:10.37,2013-06-06 10:16:00,
2013-06-06 05:18:00,50.4,45.4,29.93,NNE,23,2.5,4.6,83,0.07,CLR,,0.23,WeatherDisplay:10.37,2013-06-06 10:18:00,
2013-06-06 05:19:00,50.4,45.4,29.93,NE,34,0.2,3.5,83,0.07,CLR,,0.23,WeatherDisplay:10.37,2013-06-06 10:19:00,
2013-06-06 05:21:00,50.4,45.4,29.93,NNE,30,2.0,4.6,83,0.06,CLR,,0.23,WeatherDisplay:10.37,2013-06-06 10:21:00,
2013-06-06 05:22:00,50.4,45.4,29.93,NNE,25,1.8,3.5,83,0.06,CLR,,0.23,WeatherDisplay:10.37,2013-06-06 10:22:00,
2013-06-06 05:23:00,50.5,45.5,29.93,NE,34,2.8,4.9,83,0.05,CLR,,0.23,WeatherDisplay:10.37,2013-06-06 10:23:00,
2013-06-06 05:24:00,50.3,45.3,29.93,East,96,2.7,5.8,83,0.05,CLR,,0.23,WeatherDisplay:10.37,2013-06-06 10:24:00,
2013-06-06 05:27:00,50.3,45.3,29.93,ESE,113,3.5,4.6,83,0.05,CLR,,0.23,WeatherDisplay:10.37,2013-06-06 10:27:00,
2013-06-06 05:29:00,50.3,45.3,29.93,NE,42,0.1,1.1,83,0.04,CLR,,0.23,WeatherDisplay:10.37,2013-06-06 10:29:00,
2013-06-06 05:32:00,50.3,45.3,29.93,NE,56,2.2,3.5,83,0.03,CLR,,0.23,WeatherDisplay:10.37,2013-06-06 10:32:00,
2013-06-06 05:34:00,50.3,45.3,29.93,ENE,59,1.4,8.1,83,0.02,CLR,,0.23,WeatherDisplay:10.37,2013-06-06 10:34:00,
2013-06-06 05:35:00,50.2,45.2,29.93,NE,52,0.5,3.3,83,0.02,CLR,,0.23,WeatherDisplay:10.37,2013-06-06 10:35:00,
2013-06-06 05:37:00,50.2,45.2,29.93,NE,48,0.6,2.3,83,0.02,CLR,,0.23,WeatherDisplay:10.37,2013-06-06 10:37:00,
2013-06-06 05:38:00,50.2,45.2,29.93,NE,42,0.7,2.3,83,0.02,CLR,,0.23,WeatherDisplay:10.37,2013-06-06 10:38:00,
2013-06-06 05:39:00,50.2,45.2,29.93,East,93,2.6,3.5,83,0.02,CLR,,0.23,WeatherDisplay:10.37,2013-06-06 10:39:00,
2013-06-06 05:40:00,50.3,45.3,29.93,North,8,2.7,4.9,83,0.02,CLR,,0.23,WeatherDisplay:10.37,2013-06-06 10:40:00,
2013-06-06 05:43:00,50.2,45.2,29.93,East,82,1.4,4.6,83,0.01,CLR,,0.23,WeatherDisplay:10.37,2013-06-06 10:43:00,
2013-06-06 05:44:00,50.2,45.2,29.93,SE,136,3.1,4.7,83,0.01,CLR,,0.23,WeatherDisplay:10.37,2013-06-06 10:44:00,
2013-06-06 05:45:00,50.2,45.2,29.92,North,1,4.2,6.9,83,0.01,CLR,,0.23,WeatherDisplay:10.37,2013-06-06 10:45:00,
2013-06-06 05:48:00,50.1,45.5,29.92,East,85,2.7,4.6,84,0.00,CLR,,0.23,WeatherDisplay:10.37,2013-06-06 10:48:00,
2013-06-06 05:49:00,50.2,45.6,29.92,North,0,1.6,4.6,84,0.00,CLR,,0.23,WeatherDisplay:10.37,2013-06-06 10:49:00,
2013-06-06 05:50:00,50.2,45.6,29.92,North,360,2.4,4.6,84,0.00,CLR,,0.23,WeatherDisplay:10.37,2013-06-06 10:50:00,
2013-06-06 05:53:00,50.1,45.5,29.92,ENE,65,2.3,2.4,84,0.00,CLR,,0.23,WeatherDisplay:10.37,2013-06-06 10:53:00,
2013-06-06 05:54:00,50.1,45.5,29.92,ENE,64,1.8,4.6,84,0.00,CLR,,0.23,WeatherDisplay:10.37,2013-06-06 10:54:00,
2013-06-06 05:55:00,50.1,45.5,29.92,ENE,73,0.4,1.1,84,0.00,CLR,,0.23,WeatherDisplay:10.37,2013-06-06 10:55:00,
2013-06-06 05:58:00,50.1,45.5,29.92,ESE,121,2.3,8.1,84,0.00,CLR,,0.23,WeatherDisplay:10.37,2013-06-06 10:58:00,
2013-06-06 05:59:00,50.1,45.5,29.92,ESE,120,2.8,4.6,84,0.00,CLR,,0.23,WeatherDisplay:10.37,2013-06-06 10:59:00,
2013-06-06 06:01:00,50.1,45.5,29.92,ENE,69,1.3,2.9,84,0.00,CLR,,0.23,WeatherDisplay:10.37,2013-06-06 11:01:00,
2013-06-06 06:03:00,50.1,45.5,29.93,ENE,69,0.6,2.4,84,0.00,CLR,,0.23,WeatherDisplay:10.37,2013-06-06 11:03:00,
2013-06-06 06:04:00,50.2,45.6,29.93,ESE,107,0.7,2.3,84,0.00,CLR,,0.23,WeatherDisplay:10.37,2013-06-06 11:04:00,
2013-06-06 06:06:00,50.1,45.5,29.93,NE,55,3.3,5.8,84,0.00,CLR,,0.23,WeatherDisplay:10.37,2013-06-06 11:06:00,
2013-06-06 06:08:00,50.1,45.5,29.92,ENE,72,3.2,4.6,84,0.00,CLR,,0.23,WeatherDisplay:10.37,2013-06-06 11:08:00,
2013-06-06 06:09:00,50.1,45.5,29.92,NE,42,2.7,4.6,84,0.00,CLR,,0.23,WeatherDisplay:10.37,2013-06-06 11:09:00,
2013-06-06 06:11:00,50.1,45.5,29.92,ENE,75,2.2,3.5,84,0.00,CLR,,0.23,WeatherDisplay:10.37,2013-06-06 11:11:00,
2013-06-06 06:14:00,50.1,45.5,29.93,ENE,65,3.0,6.9,84,0.00,CLR,,0.23,WeatherDisplay:10.37,2013-06-06 11:14:00,
2013-06-06 06:17:00,50.1,45.5,29.93,ENE,71,1.7,5.8,84,0.00,CLR,,0.23,WeatherDisplay:10.37,2013-06-06 11:17:00,
2013-06-06 06:19:00,50.0,45.4,29.93,NE,54,2.1,3.5,84,0.00,CLR,,0.23,WeatherDisplay:10.37,2013-06-06 11:19:00,
2013-06-06 06:20:00,50.1,45.5,29.93,ENE,59,2.3,3.5,84,0.00,CLR,,0.23,WeatherDisplay:10.37,2013-06-06 11:20:00,
2013-06-06 06:23:00,50.1,45.5,29.93,ENE,78,2.2,4.6,84,0.00,CLR,,0.23,WeatherDisplay:10.37,2013-06-06 11:23:00,
2013-06-06 06:24:00,50.1,45.5,29.93,SE,131,1.4,3.5,84,0.00,CLR,,0.23,WeatherDisplay:10.37,2013-06-06 11:24:00,
2013-06-06 06:25:00,50.1,45.5,29.93,SE,131,0.6,2.3,84,0.00,CLR,,0.23,WeatherDisplay:10.37,2013-06-06 11:25:00,
2013-06-06 06:28:00,50.0,45.4,29.93,ENE,75,3.7,5.3,84,0.00,CLR,,0.23,WeatherDisplay:10.37,2013-06-06 11:28:00,
2013-06-06 06:29:00,50.1,45.5,29.93,ENE,66,2.5,4.6,84,0.00,CLR,,0.23,WeatherDisplay:10.37,2013-06-06 11:29:00,
2013-06-06 06:30:00,50.0,45.4,29.93,NE,44,1.8,4.6,84,0.00,CLR,,0.23,WeatherDisplay:10.37,2013-06-06 11:30:00,
2013-06-06 06:33:00,50.1,45.5,29.93,NNE,20,3.3,3.5,84,0.00,CLR,,0.23,WeatherDisplay:10.37,2013-06-06 11:33:00,
2013-06-06 06:35:00,50.2,45.6,29.93,SE,141,3.4,6.9,84,0.00,CLR,,0.23,WeatherDisplay:10.37,2013-06-06 11:35:00,
2013-06-06 06:37:00,50.1,45.5,29.93,East,95,2.4,4.6,84,0.00,CLR,,0.23,WeatherDisplay:10.37,2013-06-06 11:37:00,
2013-06-06 06:38:00,50.2,45.6,29.93,ENE,66,2.5,3.5,84,0.00,CLR,,0.23,WeatherDisplay:10.37,2013-06-06 11:38:00,
2013-06-06 06:40:00,50.2,45.6,29.93,East,88,2.2,4.6,84,0.00,CLR,,0.23,WeatherDisplay:10.37,2013-06-06 11:40:00,
2013-06-06 06:42:00,50.2,45.6,29.93,SE,144,1.0,4.6,84,0.00,CLR,,0.23,WeatherDisplay:10.37,2013-06-06 11:42:00,
2013-06-06 06:44:00,50.2,45.6,29.93,East,79,1.6,4.6,84,0.00,CLR,,0.23,WeatherDisplay:10.37,2013-06-06 11:44:00,
2013-06-06 06:45:00,50.2,45.6,29.93,NE,47,0.1,4.6,84,0.00,CLR,,0.23,WeatherDisplay:10.37,2013-06-06 11:45:00,
2013-06-06 06:46:00,50.3,45.6,29.93,NE,47,0.0,0.0,84,0.00,CLR,,0.23,WeatherDisplay:10.37,2013-06-06 11:46:00,
2013-06-06 06:48:00,50.3,45.6,29.93,East,82,2.4,5.3,84,0.00,CLR,,0.23,WeatherDisplay:10.37,2013-06-06 11:48:00,
2013-06-06 06:49:00,50.3,45.6,29.93,ESE,110,3.0,5.8,84,0.00,CLR,,0.23,WeatherDisplay:10.37,2013-06-06 11:49:00,
2013-06-06 06:50:00,50.3,45.6,29.93,East,80,4.4,4.6,84,0.00,CLR,,0.23,WeatherDisplay:10.37,2013-06-06 11:50:00,
2013-06-06 06:51:00,50.3,45.6,29.93,ENE,73,3.4,6.9,84,0.00,CLR,,0.23,WeatherDisplay:10.37,2013-06-06 11:51:00,
2013-06-06 06:53:00,50.4,45.7,29.93,East,89,4.2,5.8,84,0.00,CLR,,0.23,WeatherDisplay:10.37,2013-06-06 11:53:00,
2013-06-06 06:54:00,50.4,45.7,29.93,East,80,2.5,5.8,84,0.00,CLR,,0.23,WeatherDisplay:10.37,2013-06-06 11:54:00,
2013-06-06 06:55:00,50.4,45.7,29.93,NNE,28,2.4,4.6,84,0.00,CLR,,0.23,WeatherDisplay:10.37,2013-06-06 11:55:00,
2013-06-06 06:56:00,50.4,45.7,29.93,NE,45,1.8,4.6,84,0.00,CLR,,0.23,WeatherDisplay:10.37,2013-06-06 11:56:00,
2013-06-06 06:58:00,50.5,45.8,29.93,East,100,1.9,3.7,84,0.00,CLR,,0.23,WeatherDisplay:10.37,2013-06-06 11:58:00,
2013-06-06 07:00:00,50.5,45.8,29.93,East,88,2.6,3.5,84,0.00,CLR,,0.23,WeatherDisplay:10.37,2013-06-06 12:00:00,
2013-06-06 07:01:00,50.4,45.7,29.93,NE,34,3.7,5.8,84,0.00,CLR,,0.23,WeatherDisplay:10.37,2013-06-06 12:01:00,
2013-06-06 07:02:00,50.6,45.9,29.93,NE,41,3.4,4.6,84,0.00,CLR,,0.23,WeatherDisplay:10.37,2013-06-06 12:02:00,
2013-06-06 07:03:00,50.5,45.8,29.93,NE,52,2.4,4.6,84,0.00,CLR,,0.23,WeatherDisplay:10.37,2013-06-06 12:03:00,
2013-06-06 07:05:00,50.6,45.9,29.93,NE,56,2.6,6.9,84,0.00,CLR,,0.23,WeatherDisplay:10.37,2013-06-06 12:05:00,
2013-06-06 07:06:00,50.6,45.9,29.93,East,85,2.8,4.6,84,0.00,CLR,,0.23,WeatherDisplay:10.37,2013-06-06 12:06:00,
2013-06-06 07:07:00,50.6,45.9,29.93,North,8,1.8,4.6,84,0.00,CLR,,0.23,WeatherDisplay:10.37,2013-06-06 12:07:00,
2013-06-06 07:08:00,50.5,45.8,29.93,NE,48,2.9,5.8,84,0.00,CLR,,0.23,WeatherDisplay:10.37,2013-06-06 12:08:00,
2013-06-06 07:10:00,50.7,46.0,29.93,NE,55,2.9,4.6,84,0.00,CLR,,0.23,WeatherDisplay:10.37,2013-06-06 12:10:00,
2013-06-06 07:11:00,50.7,46.0,29.92,ESE,107,2.4,4.6,84,0.00,CLR,,0.23,WeatherDisplay:10.37,2013-06-06 12:11:00,
2013-06-06 07:12:00,50.7,46.0,29.92,East,85,4.2,5.8,84,0.00,CLR,,0.23,WeatherDisplay:10.37,2013-06-06 12:12:00,
2013-06-06 07:13:00,50.7,46.0,29.92,East,83,4.8,9.2,84,0.00,CLR,,0.23,WeatherDisplay:10.37,2013-06-06 12:13:00,
2013-06-06 07:15:00,50.7,46.0,29.92,NE,49,2.4,4.7,84,0.00,CLR,,0.23,WeatherDisplay:10.37,2013-06-06 12:15:00,
2013-06-06 07:16:00,50.8,46.1,29.92,ENE,62,3.3,3.7,84,0.00,CLR,,0.23,WeatherDisplay:10.37,2013-06-06 12:16:00,
2013-06-06 07:18:00,50.8,46.1,29.92,East,93,4.6,8.2,84,0.00,CLR,,0.23,WeatherDisplay:10.37,2013-06-06 12:18:00,
2013-06-06 07:20:00,50.9,46.2,29.92,ESE,104,3.2,5.8,84,0.00,CLR,,0.23,WeatherDisplay:10.37,2013-06-06 12:20:00,
2013-06-06 07:21:00,50.9,46.2,29.92,ESE,113,3.6,6.0,84,0.00,CLR,,0.23,WeatherDisplay:10.37,2013-06-06 12:21:00,
2013-06-06 07:22:00,50.9,46.2,29.92,SE,131,3.7,5.8,84,0.00,CLR,,0.23,WeatherDisplay:10.37,2013-06-06 12:22:00,
2013-06-06 07:23:00,50.8,46.5,29.92,ENE,78,3.9,5.8,85,0.00,CLR,,0.23,WeatherDisplay:10.37,2013-06-06 12:23:00,
2013-06-06 07:24:00,50.9,46.6,29.92,East,100,4.9,8.1,85,0.00,CLR,,0.23,WeatherDisplay:10.37,2013-06-06 12:24:00,
2013-06-06 07:25:00,51.0,46.6,29.92,ENE,59,0.9,3.5,85,0.00,CLR,,0.23,WeatherDisplay:10.37,2013-06-06 12:25:00,
2013-06-06 07:27:00,51.0,46.6,29.92,ESE,117,2.6,4.2,85,0.00,CLR,,0.23,WeatherDisplay:10.37,2013-06-06 12:27:00,
2013-06-06 07:28:00,51.0,46.6,29.92,ENE,72,2.4,4.6,85,0.00,CLR,,0.23,WeatherDisplay:10.37,2013-06-06 12:28:00,
2013-06-06 07:29:00,51.0,46.6,29.92,ESE,117,1.7,3.5,85,0.00,CLR,,0.23,WeatherDisplay:10.37,2013-06-06 12:29:00,
2013-06-06 07:32:00,51.1,46.7,29.92,ENE,68,4.7,6.9,85,0.00,CLR,,0.23,WeatherDisplay:10.37,2013-06-06 12:32:00,
2013-06-06 07:33:00,51.2,46.8,29.93,SE,144,1.7,5.8,85,0.00,CLR,,0.23,WeatherDisplay:10.37,2013-06-06 12:33:00,
2013-06-06 07:34:00,51.3,46.9,29.93,East,95,3.8,6.9,85,0.00,CLR,,0.23,WeatherDisplay:10.37,2013-06-06 12:34:00,
2013-06-06 07:37:00,51.3,46.9,29.93,NE,55,2.9,5.8,85,0.00,CLR,,0.23,WeatherDisplay:10.37,2013-06-06 12:37:00,
2013-06-06 07:38:00,51.3,46.9,29.93,NNW,347,1.9,3.5,85,0.00,CLR,,0.23,WeatherDisplay:10.37,2013-06-06 12:38:00,
2013-06-06 07:39:00,51.4,47.0,29.93,ESE,121,3.7,6.9,85,0.00,CLR,,0.23,WeatherDisplay:10.37,2013-06-06 12:39:00,
2013-06-06 07:42:00,51.5,47.1,29.93,East,89,2.9,6.9,85,0.00,CLR,,0.23,WeatherDisplay:10.37,2013-06-06 12:42:00,
2013-06-06 07:43:00,51.5,47.1,29.93,NE,42,1.9,3.5,85,0.00,CLR,,0.23,WeatherDisplay:10.37,2013-06-06 12:43:00,
2013-06-06 07:45:00,51.7,47.3,29.93,East,88,3.1,5.6,85,0.00,CLR,,0.23,WeatherDisplay:10.37,2013-06-06 12:45:00,
2013-06-06 07:47:00,51.7,47.3,29.93,NE,37,2.5,4.6,85,0.00,CLR,,0.23,WeatherDisplay:10.37,2013-06-06 12:47:00,
2013-06-06 07:48:00,51.7,47.3,29.93,ESE,114,2.7,4.6,85,0.00,CLR,,0.23,WeatherDisplay:10.37,2013-06-06 12:48:00,
2013-06-06 07:50:00,51.8,47.4,29.93,East,79,2.7,9.2,85,0.00,CLR,,0.23,WeatherDisplay:10.37,2013-06-06 12:50:00,
2013-06-06 07:53:00,51.8,47.1,29.93,ESE,107,1.8,5.8,84,0.00,CLR,,0.23,WeatherDisplay:10.37,2013-06-06 12:53:00,
2013-06-06 07:54:00,51.8,47.1,29.93,ESE,112,3.0,4.6,84,0.00,CLR,,0.23,WeatherDisplay:10.37,2013-06-06 12:54:00,
2013-06-06 07:55:00,51.9,47.2,29.93,East,93,2.8,5.8,84,0.00,CLR,,0.23,WeatherDisplay:10.37,2013-06-06 12:55:00,
2013-06-06 07:58:00,51.9,47.2,29.93,NE,51,2.8,5.0,84,0.00,CLR,,0.23,WeatherDisplay:10.37,2013-06-06 12:58:00,
2013-06-06 07:59:00,51.9,47.2,29.93,ENE,64,4.3,5.8,84,0.00,CLR,,0.23,WeatherDisplay:10.37,2013-06-06 12:59:00,
2013-06-06 08:00:00,51.9,47.2,29.93,ESE,106,3.5,6.9,84,0.00,CLR,,0.23,WeatherDisplay:10.37,2013-06-06 13:00:00,
2013-06-06 08:03:00,52.0,47.3,29.93,ESE,102,3.0,4.6,84,0.00,CLR,,0.23,WeatherDisplay:10.37,2013-06-06 13:03:00,
2013-06-06 08:04:00,51.9,47.2,29.93,ENE,62,1.7,4.6,84,0.00,CLR,,0.23,WeatherDisplay:10.37,2013-06-06 13:04:00,
2013-06-06 08:05:00,51.9,47.2,29.93,SE,137,2.9,3.5,84,0.00,CLR,,0.23,WeatherDisplay:10.37,2013-06-06 13:05:00,
2013-06-06 08:08:00,51.9,47.2,29.93,East,100,3.7,6.9,84,0.00,CLR,,0.23,WeatherDisplay:10.37,2013-06-06 13:08:00,
2013-06-06 08:09:00,51.9,47.2,29.93,ESE,119,2.7,3.5,84,0.00,CLR,,0.23,WeatherDisplay:10.37,2013-06-06 13:09:00,
2013-06-06 08:10:00,51.9,47.2,29.93,ESE,117,3.9,5.8,84,0.00,CLR,,0.23,WeatherDisplay:10.37,2013-06-06 13:10:00,
2013-06-06 08:13:00,52.0,47.3,29.93,East,83,5.1,8.1,84,0.00,CLR,,0.23,WeatherDisplay:10.37,2013-06-06 13:13:00,
2013-06-06 08:14:00,52.0,47.3,29.93,East,93,4.6,9.2,84,0.00,CLR,,0.23,WeatherDisplay:10.37,2013-06-06 13:14:00,
2013-06-06 08:15:00,51.9,47.2,29.93,ESE,104,3.7,4.6,84,0.00,CLR,,0.23,WeatherDisplay:10.37,2013-06-06 13:15:00,
2013-06-06 08:18:00,51.9,47.2,29.93,ESE,117,2.6,5.8,84,0.00,CLR,,0.23,WeatherDisplay:10.37,2013-06-06 13:18:00,
2013-06-06 08:19:00,51.9,47.2,29.93,NE,35,4.6,5.8,84,0.00,CLR,,0.23,WeatherDisplay:10.37,2013-06-06 13:19:00,
2013-06-06 08:20:00,52.0,47.3,29.93,ENE,61,4.3,6.9,84,0.00,CLR,,0.23,WeatherDisplay:10.37,2013-06-06 13:20:00,
2013-06-06 08:23:00,52.0,47.3,29.93,ENE,64,3.0,4.6,84,0.00,CLR,,0.23,WeatherDisplay:10.37,2013-06-06 13:23:00,
2013-06-06 08:24:00,52.0,47.3,29.93,SE,143,3.4,4.6,84,0.00,CLR,,0.23,WeatherDisplay:10.37,2013-06-06 13:24:00,
2013-06-06 08:25:00,52.1,47.4,29.93,NE,42,4.2,5.8,84,0.00,CLR,,0.23,WeatherDisplay:10.37,2013-06-06 13:25:00,
2013-06-06 08:29:00,52.2,47.5,29.93,ENE,78,3.1,8.1,84,0.00,CLR,,0.23,WeatherDisplay:10.37,2013-06-06 13:29:00,
2013-06-06 08:30:00,52.2,47.5,29.93,NE,54,2.6,5.8,84,0.00,CLR,,0.23,WeatherDisplay:10.37,2013-06-06 13:30:00,
2013-06-06 08:31:00,52.2,47.5,29.93,NE,44,3.1,4.6,84,0.00,CLR,,0.23,WeatherDisplay:10.37,2013-06-06 13:31:00,
2013-06-06 08:34:00,52.4,47.7,29.93,ENE,59,3.2,5.7,84,0.00,CLR,,0.23,WeatherDisplay:10.37,2013-06-06 13:34:00,
2013-06-06 08:35:00,52.4,47.7,29.93,ENE,64,3.5,5.8,84,0.00,CLR,,0.23,WeatherDisplay:10.37,2013-06-06 13:35:00,
2013-06-06 08:36:00,52.4,47.7,29.93,ENE,61,5.6,6.9,84,0.00,CLR,,0.23,WeatherDisplay:10.37,2013-06-06 13:36:00,
2013-06-06 08:39:00,52.5,47.8,29.93,NNE,28,4.3,6.9,84,0.00,CLR,,0.23,WeatherDisplay:10.37,2013-06-06 13:39:00,
2013-06-06 08:40:00,52.5,47.8,29.93,East,85,3.8,6.9,84,0.00,CLR,,0.23,WeatherDisplay:10.37,2013-06-06 13:40:00,
2013-06-06 08:41:00,52.5,47.8,29.93,ENE,78,4.7,6.9,84,0.00,CLR,,0.23,WeatherDisplay:10.37,2013-06-06 13:41:00,
2013-06-06 08:44:00,52.5,47.8,29.93,NNE,13,0.5,4.6,84,0.00,CLR,,0.23,WeatherDisplay:10.37,2013-06-06 13:44:00,
2013-06-06 08:45:00,52.6,47.9,29.93,East,96,2.7,6.3,84,0.00,CLR,,0.23,WeatherDisplay:10.37,2013-06-06 13:45:00,
2013-06-06 08:47:00,52.7,48.0,29.93,NE,41,3.5,8.1,84,0.00,CLR,,0.23,WeatherDisplay:10.37,2013-06-06 13:47:00,
2013-06-06 08:49:00,52.7,48.0,29.93,South,178,3.9,8.1,84,0.00,CLR,,0.23,WeatherDisplay:10.37,2013-06-06 13:49:00,
2013-06-06 08:50:00,52.6,47.9,29.93,ESE,123,3.0,8.1,84,0.00,CLR,,0.23,WeatherDisplay:10.37,2013-06-06 13:50:00,
2013-06-06 08:51:00,52.6,47.9,29.93,ENE,76,4.7,6.9,84,0.00,CLR,,0.23,WeatherDisplay:10.37,2013-06-06 13:51:00,
2013-06-06 08:52:00,52.6,47.9,29.93,East,100,3.0,6.9,84,0.00,CLR,,0.23,WeatherDisplay:10.37,2013-06-06 13:52:00,
2013-06-06 08:55:00,52.6,47.9,29.93,NE,54,3.1,5.8,84,0.00,CLR,,0.23,WeatherDisplay:10.37,2013-06-06 13:55:00,
2013-06-06 08:57:00,52.6,47.9,29.94,NNE,18,2.5,4.6,84,0.00,CLR,,0.23,WeatherDisplay:10.37,2013-06-06 13:57:00,
2013-06-06 08:58:00,52.7,48.0,29.94,ENE,75,3.2,4.0,84,0.00,CLR,,0.23,WeatherDisplay:10.37,2013-06-06 13:58:00,
2013-06-06 09:00:00,52.7,48.0,29.94,ESE,109,1.7,3.0,84,0.00,CLR,,0.23,WeatherDisplay:10.37,2013-06-06 14:00:00,
2013-06-06 09:02:00,52.8,48.1,29.94,ENE,68,2.5,3.2,84,0.00,CLR,,0.23,WeatherDisplay:10.37,2013-06-06 14:02:00,
2013-06-06 09:03:00,52.8,48.1,29.94,East,92,3.6,5.8,84,0.00,CLR,,0.23,WeatherDisplay:10.37,2013-06-06 14:03:00,
2013-06-06 09:05:00,52.9,48.2,29.94,East,86,3.1,6.9,84,0.00,CLR,,0.23,WeatherDisplay:10.37,2013-06-06 14:05:00,
2013-06-06 09:07:00,53.0,48.3,29.94,East,83,2.8,3.5,84,0.00,CLR,,0.23,WeatherDisplay:10.37,2013-06-06 14:07:00,
2013-06-06 09:08:00,52.9,48.2,29.94,ENE,72,2.1,3.5,84,0.00,CLR,,0.23,WeatherDisplay:10.37,2013-06-06 14:08:00,
2013-06-06 09:10:00,53.1,48.4,29.94,East,89,4.8,5.8,84,0.00,CLR,,0.23,WeatherDisplay:10.37,2013-06-06 14:10:00,
2013-06-06 09:13:00,53.2,48.5,29.94,ESE,123,1.2,4.6,84,0.00,CLR,,0.23,WeatherDisplay:10.37,2013-06-06 14:13:00,
2013-06-06 09:15:00,53.4,48.7,29.94,East,83,1.6,2.3,84,0.00,CLR,,0.23,WeatherDisplay:10.37,2013-06-06 14:15:00,
2013-06-06 09:16:00,53.4,48.7,29.94,NE,55,1.6,2.3,84,0.00,CLR,,0.23,WeatherDisplay:10.37,2013-06-06 14:16:00,
2013-06-06 09:18:00,53.5,48.5,29.94,East,96,3.2,5.5,83,0.00,CLR,,0.23,WeatherDisplay:10.37,2013-06-06 14:18:00,
2013-06-06 09:20:00,53.5,48.5,29.94,SE,136,4.9,7.7,83,0.00,CLR,,0.23,WeatherDisplay:10.37,2013-06-06 14:20:00,
2013-06-06 09:21:00,53.5,48.5,29.94,ENE,73,4.6,8.1,83,0.00,CLR,,0.23,WeatherDisplay:10.37,2013-06-06 14:21:00,
2013-06-06 09:23:00,53.6,48.6,29.94,ESE,120,4.3,5.4,83,0.00,CLR,,0.23,WeatherDisplay:10.37,2013-06-06 14:23:00,
2013-06-06 09:25:00,53.6,48.6,29.94,ESE,103,3.1,5.8,83,0.00,CLR,,0.23,WeatherDisplay:10.37,2013-06-06 14:25:00,
2013-06-06 09:26:00,53.6,48.6,29.94,East,97,2.8,3.5,83,0.00,CLR,,0.23,WeatherDisplay:10.37,2013-06-06 14:26:00,
2013-06-06 09:28:00,53.8,48.8,29.95,ENE,72,5.7,6.9,83,0.00,CLR,,0.23,WeatherDisplay:10.37,2013-06-06 14:28:00,
2013-06-06 09:29:00,53.8,48.8,29.95,East,95,4.3,9.2,83,0.00,CLR,,0.23,WeatherDisplay:10.37,2013-06-06 14:29:00,
2013-06-06 09:30:00,53.8,48.8,29.94,East,93,2.8,7.7,83,0.00,CLR,,0.23,WeatherDisplay:10.37,2013-06-06 14:30:00,
2013-06-06 09:31:00,53.7,48.7,29.95,ENE,71,3.5,7.3,83,0.00,CLR,,0.23,WeatherDisplay:10.37,2013-06-06 14:31:00,
2013-06-06 09:33:00,53.9,48.9,29.94,ESE,117,3.3,5.8,83,0.00,CLR,,0.23,WeatherDisplay:10.37,2013-06-06 14:33:00,
2013-06-06 09:34:00,53.9,48.9,29.95,ESE,107,3.3,5.8,83,0.00,CLR,,0.23,WeatherDisplay:10.37,2013-06-06 14:34:00,
2013-06-06 09:35:00,54.1,49.1,29.94,ESE,117,2.4,3.5,83,0.00,CLR,,0.23,WeatherDisplay:10.37,2013-06-06 14:35:00,
2013-06-06 09:36:00,54.1,49.1,29.94,SE,131,2.3,3.5,83,0.00,CLR,,0.23,WeatherDisplay:10.37,2013-06-06 14:36:00,
2013-06-06 09:38:00,54.2,49.1,29.95,ESE,103,6.3,9.2,83,0.00,CLR,,0.23,WeatherDisplay:10.37,2013-06-06 14:38:00,
2013-06-06 09:39:00,54.3,49.2,29.95,ESE,120,6.6,9.2,83,0.00,CLR,,0.23,WeatherDisplay:10.37,2013-06-06 14:39:00,
2013-06-06 09:40:00,54.3,48.9,29.94,SE,136,5.5,8.1,82,0.00,CLR,,0.23,WeatherDisplay:10.37,2013-06-06 14:40:00,
2013-06-06 09:41:00,54.4,49.0,29.94,SE,131,5.3,8.1,82,0.00,CLR,,0.23,WeatherDisplay:10.37,2013-06-06 14:41:00,
2013-06-06 09:42:00,54.4,49.0,29.94,NE,47,5.3,6.9,82,0.00,CLR,,0.23,WeatherDisplay:10.37,2013-06-06 14:42:00,
2013-06-06 09:44:00,54.5,49.1,29.94,East,80,3.3,4.9,82,0.00,CLR,,0.23,WeatherDisplay:10.37,2013-06-06 14:44:00,
2013-06-06 09:46:00,54.5,49.1,29.94,ESE,102,4.1,6.0,82,0.00,CLR,,0.23,WeatherDisplay:10.37,2013-06-06 14:46:00,
2013-06-06 09:48:00,54.7,49.3,29.94,East,100,1.6,4.6,82,0.00,CLR,,0.23,WeatherDisplay:10.37,2013-06-06 14:48:00,
2013-06-06 09:49:00,54.8,49.4,29.94,ESE,103,1.9,3.5,82,0.00,CLR,,0.23,WeatherDisplay:10.37,2013-06-06 14:49:00,
2013-06-06 09:51:00,54.9,49.5,29.94,SE,130,3.4,6.6,82,0.00,CLR,,0.23,WeatherDisplay:10.37,2013-06-06 14:51:00,
2013-06-06 09:53:00,55.1,49.7,29.94,SSE,152,5.6,9.2,82,0.00,CLR,,0.23,WeatherDisplay:10.37,2013-06-06 14:53:00,
2013-06-06 09:54:00,55.3,49.9,29.94,South,176,4.3,10.4,82,0.00,CLR,,0.23,WeatherDisplay:10.37,2013-06-06 14:54:00,
2013-06-06 09:56:00,55.4,50.0,29.94,ENE,68,4.6,6.9,82,0.00,CLR,,0.23,WeatherDisplay:10.37,2013-06-06 14:56:00,
2013-06-06 09:57:00,55.5,50.1,29.94,ESE,123,5.3,8.1,82,0.00,CLR,,0.23,WeatherDisplay:10.37,2013-06-06 14:57:00,
2013-06-06 09:58:00,55.6,49.9,29.94,ESE,106,5.6,8.3,81,0.00,CLR,,0.23,WeatherDisplay:10.37,2013-06-06 14:58:00,
2013-06-06 09:59:00,55.6,49.9,29.94,ESE,103,5.6,9.2,81,0.00,CLR,,0.23,WeatherDisplay:10.37,2013-06-06 14:59:00,
2013-06-06 10:01:00,55.6,49.9,29.94,East,79,2.7,5.8,81,0.00,CLR,,0.23,WeatherDisplay:10.37,2013-06-06 15:01:00,
2013-06-06 10:02:00,55.7,50.0,29.94,East,99,2.6,4.6,81,0.00,CLR,,0.23,WeatherDisplay:10.37,2013-06-06 15:02:00,
2013-06-06 10:03:00,55.7,50.0,29.94,ESE,106,3.5,6.0,81,0.00,CLR,,0.23,WeatherDisplay:10.37,2013-06-06 15:03:00,
2013-06-06 10:04:00,55.8,50.1,29.94,East,82,3.3,8.1,81,0.00,CLR,,0.23,WeatherDisplay:10.37,2013-06-06 15:04:00,
2013-06-06 10:05:00,55.9,50.2,29.94,ESE,119,3.1,7.4,81,0.00,CLR,,0.23,WeatherDisplay:10.37,2013-06-06 15:05:00,
2013-06-06 10:06:00,55.9,49.8,29.94,East,93,5.2,9.2,80,0.00,CLR,,0.23,WeatherDisplay:10.37,2013-06-06 15:06:00,
2013-06-06 10:07:00,56.0,49.9,29.94,ESE,119,5.6,9.6,80,0.00,CLR,,0.23,WeatherDisplay:10.37,2013-06-06 15:07:00,
2013-06-06 10:08:00,56.0,49.9,29.94,ENE,73,6.2,9.2,80,0.00,CLR,,0.23,WeatherDisplay:10.37,2013-06-06 15:08:00,
2013-06-06 10:09:00,56.1,50.0,29.94,ESE,107,4.6,6.9,80,0.00,CLR,,0.23,WeatherDisplay:10.37,2013-06-06 15:09:00,
2013-06-06 10:10:00,56.0,49.9,29.94,ESE,110,5.7,10.5,80,0.00,CLR,,0.23,WeatherDisplay:10.37,2013-06-06 15:10:00,
2013-06-06 10:11:00,56.1,50.0,29.94,SE,126,6.5,13.8,80,0.00,CLR,,0.23,WeatherDisplay:10.37,2013-06-06 15:11:00,
2013-06-06 10:13:00,56.1,49.7,29.94,ESE,109,4.8,10.4,79,0.00,CLR,,0.23,WeatherDisplay:10.37,2013-06-06 15:13:00,
2013-06-06 10:14:00,56.2,49.8,29.94,NE,56,4.7,8.1,79,0.00,CLR,,0.23,WeatherDisplay:10.37,2013-06-06 15:14:00,
2013-06-06 10:15:00,56.2,49.8,29.94,SE,143,3.1,8.1,79,0.00,CLR,,0.23,WeatherDisplay:10.37,2013-06-06 15:15:00,
2013-06-06 10:16:00,56.2,49.8,29.94,ESE,104,4.3,8.1,79,0.00,CLR,,0.23,WeatherDisplay:10.37,2013-06-06 15:16:00,
2013-06-06 10:18:00,56.3,49.9,29.94,ENE,65,4.0,8.1,79,0.00,CLR,,0.23,WeatherDisplay:10.37,2013-06-06 15:18:00,
2013-06-06 10:20:00,56.3,49.5,29.94,NNE,32,5.9,9.2,78,0.00,CLR,,0.23,WeatherDisplay:10.37,2013-06-06 15:20:00,
2013-06-06 10:21:00,56.3,49.5,29.94,SSW,193,3.7,6.9,78,0.00,CLR,,0.23,WeatherDisplay:10.37,2013-06-06 15:21:00,
2013-06-06 10:23:00,56.4,49.6,29.94,SW,220,4.4,4.6,78,0.00,CLR,,0.23,WeatherDisplay:10.37,2013-06-06 15:23:00,
2013-06-06 10:25:00,56.5,49.7,29.94,East,96,4.4,6.9,78,0.00,CLR,,0.23,WeatherDisplay:10.37,2013-06-06 15:25:00,
2013-06-06 10:27:00,56.6,49.8,29.94,ESE,104,3.3,5.8,78,0.00,CLR,,0.23,WeatherDisplay:10.37,2013-06-06 15:27:00,
2013-06-06 10:28:00,56.6,49.8,29.94,SE,140,6.2,8.1,78,0.00,CLR,,0.23,WeatherDisplay:10.37,2013-06-06 15:28:00,
2013-06-06 10:30:00,56.6,49.8,29.94,ESE,112,3.8,8.1,78,0.00,CLR,,0.23,WeatherDisplay:10.37,2013-06-06 15:30:00,
2013-06-06 10:32:00,56.6,49.8,29.94,East,83,3.8,11.5,78,0.00,CLR,,0.23,WeatherDisplay:10.37,2013-06-06 15:32:00,
2013-06-06 10:33:00,56.7,49.6,29.94,ESE,121,6.4,10.4,77,0.00,CLR,,0.23,WeatherDisplay:10.37,2013-06-06 15:33:00,
2013-06-06 10:34:00,56.7,49.6,29.94,ENE,59,5.6,10.4,77,0.00,CLR,,0.23,WeatherDisplay:10.37,2013-06-06 15:34:00,
2013-06-06 10:35:00,56.8,49.7,29.94,East,96,5.9,9.2,77,0.00,CLR,,0.23,WeatherDisplay:10.37,2013-06-06 15:35:00,
2013-06-06 10:37:00,56.8,49.7,29.94,SE,144,4.3,9.2,77,0.00,CLR,,0.23,WeatherDisplay:10.37,2013-06-06 15:37:00,
2013-06-06 10:39:00,56.9,50.1,29.94,SE,136,5.8,8.1,78,0.00,CLR,,0.23,WeatherDisplay:10.37,2013-06-06 15:39:00,
2013-06-06 10:40:00,57.1,50.3,29.94,SE,136,5.8,10.4,78,0.00,CLR,,0.23,WeatherDisplay:10.37,2013-06-06 15:40:00,
2013-06-06 10:42:00,57.3,50.1,29.94,South,169,5.4,8.1,77,0.00,CLR,,0.23,WeatherDisplay:10.37,2013-06-06 15:42:00,
2013-06-06 10:43:00,57.3,50.1,29.94,South,169,5.3,8.1,77,0.00,CLR,,0.23,WeatherDisplay:10.37,2013-06-06 15:43:00,
2013-06-06 10:44:00,57.4,50.2,29.94,ESE,119,3.2,10.6,77,0.00,CLR,,0.23,WeatherDisplay:10.37,2013-06-06 15:44:00,
2013-06-06 10:45:00,57.6,50.4,29.94,ESE,102,3.9,6.9,77,0.00,CLR,,0.23,WeatherDisplay:10.37,2013-06-06 15:45:00,
2013-06-06 10:48:00,58.0,50.5,29.94,East,86,6.3,8.1,76,0.00,CLR,,0.23,WeatherDisplay:10.37,2013-06-06 15:48:00,
2013-06-06 10:49:00,57.9,50.4,29.94,East,97,5.5,9.2,76,0.00,CLR,,0.23,WeatherDisplay:10.37,2013-06-06 15:49:00,
2013-06-06 10:51:00,58.0,50.5,29.94,SSE,167,6.0,9.2,76,0.00,CLR,,0.23,WeatherDisplay:10.37,2013-06-06 15:51:00,
2013-06-06 10:53:00,58.2,50.7,29.94,SSE,158,4.9,8.1,76,0.00,CLR,,0.23,WeatherDisplay:10.37,2013-06-06 15:53:00,
2013-06-06 10:54:00,58.2,50.7,29.94,SE,137,3.9,5.8,76,0.00,CLR,,0.23,WeatherDisplay:10.37,2013-06-06 15:54:00,
2013-06-06 10:56:00,58.5,50.6,29.94,South,186,5.5,9.2,75,0.00,CLR,,0.23,WeatherDisplay:10.37,2013-06-06 15:56:00,
2013-06-06 10:58:00,58.5,50.6,29.94,SE,145,5.0,7.6,75,0.00,CLR,,0.23,WeatherDisplay:10.37,2013-06-06 15:58:00,
2013-06-06 10:59:00,58.5,50.2,29.94,SSE,152,3.4,8.1,74,0.00,CLR,,0.23,WeatherDisplay:10.37,2013-06-06 15:59:00,
2013-06-06 11:02:00,58.5,50.2,29.94,East,96,5.3,6.9,74,0.00,CLR,,0.23,WeatherDisplay:10.37,2013-06-06 16:02:00,
2013-06-06 11:03:00,58.5,50.2,29.94,SE,128,4.7,9.2,74,0.00,CLR,,0.23,WeatherDisplay:10.37,2013-06-06 16:03:00,
2013-06-06 11:04:00,58.5,50.2,29.94,South,175,3.3,5.8,74,0.00,CLR,,0.23,WeatherDisplay:10.37,2013-06-06 16:04:00,
2013-06-06 11:05:00,58.6,50.3,29.94,South,174,3.6,8.1,74,0.00,CLR,,0.23,WeatherDisplay:10.37,2013-06-06 16:05:00,
2013-06-06 11:07:00,58.6,50.3,29.94,ESE,114,2.3,4.7,74,0.00,CLR,,0.23,WeatherDisplay:10.37,2013-06-06 16:07:00,
2013-06-06 11:09:00,58.6,50.3,29.94,SE,137,4.5,6.9,74,0.00,CLR,,0.23,WeatherDisplay:10.37,2013-06-06 16:09:00,
2013-06-06 11:10:00,58.7,50.4,29.94,East,85,4.2,6.5,74,0.00,CLR,,0.23,WeatherDisplay:10.37,2013-06-06 16:10:00,
2013-06-06 11:12:00,58.9,50.6,29.94,SE,131,3.3,8.1,74,0.00,CLR,,0.23,WeatherDisplay:10.37,2013-06-06 16:12:00,
2013-06-06 11:14:00,59.0,50.7,29.94,East,83,4.8,8.1,74,0.00,CLR,,0.23,WeatherDisplay:10.37,2013-06-06 16:14:00,
2013-06-06 11:15:00,59.1,50.8,29.94,SSE,165,4.6,6.9,74,0.00,CLR,,0.23,WeatherDisplay:10.37,2013-06-06 16:15:00,
2013-06-06 11:18:00,59.3,50.6,29.94,South,191,5.2,9.2,73,0.00,CLR,,0.23,WeatherDisplay:10.37,2013-06-06 16:18:00,
2013-06-06 11:19:00,59.2,50.5,29.94,South,169,4.3,6.9,73,0.00,CLR,,0.23,WeatherDisplay:10.37,2013-06-06 16:19:00,
2013-06-06 11:20:00,59.3,50.3,29.94,South,174,1.1,6.9,72,0.00,CLR,,0.23,WeatherDisplay:10.37,2013-06-06 16:20:00,
2013-06-06 11:23:00,59.5,50.5,29.94,South,182,3.1,8.1,72,0.00,CLR,,0.23,WeatherDisplay:10.37,2013-06-06 16:23:00,
2013-06-06 11:24:00,59.4,50.4,29.93,SSE,167,6.2,6.2,72,0.00,CLR,,0.23,WeatherDisplay:10.37,2013-06-06 16:24:00,
2013-06-06 11:25:00,59.4,50.0,29.94,ESE,114,4.0,9.2,71,0.00,CLR,,0.23,WeatherDisplay:10.37,2013-06-06 16:25:00,
2013-06-06 11:26:00,59.3,50.3,29.94,SE,137,4.6,8.1,72,0.00,CLR,,0.23,WeatherDisplay:10.37,2013-06-06 16:26:00,
2013-06-06 11:28:00,59.5,50.5,29.93,ESE,114,4.3,5.8,72,0.00,CLR,,0.23,WeatherDisplay:10.37,2013-06-06 16:28:00,
2013-06-06 11:29:00,59.3,49.9,29.94,ESE,106,3.0,5.8,71,0.00,CLR,,0.23,WeatherDisplay:10.37,2013-06-06 16:29:00,
2013-06-06 11:30:00,59.4,50.4,29.94,ESE,119,5.0,8.1,72,0.00,CLR,,0.23,WeatherDisplay:10.37,2013-06-06 16:30:00,
2013-06-06 11:31:00,59.4,50.4,29.94,ESE,116,5.7,8.1,72,0.00,CLR,,0.23,WeatherDisplay:10.37,2013-06-06 16:31:00,
2013-06-06 11:33:00,59.3,49.9,29.94,SSE,154,2.0,4.6,71,0.00,CLR,,0.23,WeatherDisplay:10.37,2013-06-06 16:33:00,
2013-06-06 11:35:00,59.4,50.0,29.94,ESE,121,2.6,6.3,71,0.00,CLR,,0.23,WeatherDisplay:10.37,2013-06-06 16:35:00,
2013-06-06 11:36:00,59.3,49.9,29.94,ESE,113,4.6,8.1,71,0.00,CLR,,0.23,WeatherDisplay:10.37,2013-06-06 16:36:00,
2013-06-06 11:38:00,59.2,50.2,29.94,ESE,120,4.4,6.9,72,0.00,CLR,,0.23,WeatherDisplay:10.37,2013-06-06 16:38:00,
2013-06-06 11:40:00,59.2,49.8,29.94,ESE,109,5.8,9.2,71,0.00,CLR,,0.23,WeatherDisplay:10.37,2013-06-06 16:40:00,
2013-06-06 11:42:00,59.3,49.9,29.94,SE,128,4.6,6.9,71,0.00,CLR,,0.23,WeatherDisplay:10.37,2013-06-06 16:42:00,
2013-06-06 11:44:00,59.2,50.2,29.94,ENE,68,4.2,5.8,72,0.00,CLR,,0.23,WeatherDisplay:10.37,2013-06-06 16:44:00,
2013-06-06 11:45:00,59.2,50.2,29.94,ESE,123,4.2,6.9,72,0.00,CLR,,0.23,WeatherDisplay:10.37,2013-06-06 16:45:00,
2013-06-06 11:47:00,59.2,50.2,29.94,SE,127,2.6,5.8,72,0.00,CLR,,0.23,WeatherDisplay:10.37,2013-06-06 16:47:00,
2013-06-06 11:48:00,59.1,50.1,29.94,South,171,3.4,7.0,72,0.00,CLR,,0.23,WeatherDisplay:10.37,2013-06-06 16:48:00,
2013-06-06 11:49:00,59.0,50.0,29.94,ENE,71,3.7,8.1,72,0.00,CLR,,0.23,WeatherDisplay:10.37,2013-06-06 16:49:00,
2013-06-06 11:50:00,59.1,50.1,29.94,NE,54,2.6,8.1,72,0.00,CLR,,0.23,WeatherDisplay:10.37,2013-06-06 16:50:00,
2013-06-06 11:51:00,59.1,50.1,29.94,East,83,4.0,8.1,72,0.00,CLR,,0.23,WeatherDisplay:10.37,2013-06-06 16:51:00,
2013-06-06 11:52:00,59.0,50.0,29.94,East,85,4.2,6.9,72,0.00,CLR,,0.23,WeatherDisplay:10.37,2013-06-06 16:52:00,
2013-06-06 11:53:00,59.0,50.0,29.94,ESE,123,4.5,6.9,72,0.00,CLR,,0.23,WeatherDisplay:10.37,2013-06-06 16:53:00,
2013-06-06 11:54:00,59.1,50.1,29.94,East,89,3.4,6.0,72,0.00,CLR,,0.23,WeatherDisplay:10.37,2013-06-06 16:54:00,
2013-06-06 11:55:00,59.0,50.0,29.94,NE,49,6.7,11.5,72,0.00,CLR,,0.23,WeatherDisplay:10.37,2013-06-06 16:55:00,
2013-06-06 11:57:00,59.0,50.0,29.94,SE,133,4.5,9.2,72,0.00,CLR,,0.23,WeatherDisplay:10.37,2013-06-06 16:57:00,
2013-06-06 11:58:00,59.1,50.1,29.94,ENE,68,4.5,8.1,72,0.00,CLR,,0.23,WeatherDisplay:10.37,2013-06-06 16:58:00,
2013-06-06 12:00:00,59.1,50.1,29.94,ESE,123,5.9,9.2,72,0.00,CLR,,0.23,WeatherDisplay:10.37,2013-06-06 17:00:00,
2013-06-06 12:03:00,59.0,50.0,29.94,ENE,66,2.5,4.6,72,0.00,CLR,,0.23,WeatherDisplay:10.37,2013-06-06 17:03:00,
2013-06-06 12:05:00,58.9,49.9,29.94,East,96,3.0,5.8,72,0.00,CLR,,0.23,WeatherDisplay:10.37,2013-06-06 17:05:00,
2013-06-06 12:06:00,58.9,49.9,29.94,East,82,3.3,5.8,72,0.00,CLR,,0.23,WeatherDisplay:10.37,2013-06-06 17:06:00,
2013-06-06 12:08:00,58.8,49.8,29.94,East,86,5.5,6.9,72,0.00,CLR,,0.23,WeatherDisplay:10.37,2013-06-06 17:08:00,
2013-06-06 12:11:00,58.8,49.8,29.94,SE,140,3.6,8.1,72,0.00,CLR,,0.23,WeatherDisplay:10.37,2013-06-06 17:11:00,
2013-06-06 12:13:00,58.9,49.9,29.94,NE,47,5.7,9.2,72,0.00,CLR,,0.23,WeatherDisplay:10.37,2013-06-06 17:13:00,
2013-06-06 12:16:00,58.7,49.7,29.94,ESE,103,6.0,9.2,72,0.00,CLR,,0.23,WeatherDisplay:10.37,2013-06-06 17:16:00,
2013-06-06 12:17:00,58.8,49.8,29.94,ESE,113,5.3,8.1,72,0.00,CLR,,0.23,WeatherDisplay:10.37,2013-06-06 17:17:00,
2013-06-06 12:18:00,58.7,49.7,29.94,ENE,75,5.8,8.1,72,0.00,CLR,,0.23,WeatherDisplay:10.37,2013-06-06 17:18:00,
2013-06-06 12:19:00,58.6,49.6,29.94,East,86,4.9,9.2,72,0.00,CLR,,0.23,WeatherDisplay:10.37,2013-06-06 17:19:00,
2013-06-06 12:21:00,58.5,49.5,29.94,ESE,107,3.7,5.8,72,0.00,CLR,,0.23,WeatherDisplay:10.37,2013-06-06 17:21:00,
2013-06-06 12:22:00,58.6,49.6,29.94,NE,52,5.5,9.1,72,0.00,CLR,,0.23,WeatherDisplay:10.37,2013-06-06 17:22:00,
2013-06-06 12:23:00,58.6,49.6,29.94,SE,127,6.0,9.2,72,0.00,CLR,,0.23,WeatherDisplay:10.37,2013-06-06 17:23:00,
2013-06-06 12:24:00,58.6,49.6,29.94,SE,127,4.4,9.2,72,0.00,CLR,,0.23,WeatherDisplay:10.37,2013-06-06 17:24:00,
2013-06-06 12:27:00,58.6,49.6,29.94,ENE,66,4.1,6.6,72,0.00,CLR,,0.23,WeatherDisplay:10.37,2013-06-06 17:27:00,
2013-06-06 12:28:00,58.5,49.5,29.94,ESE,104,4.5,8.1,72,0.00,CLR,,0.23,WeatherDisplay:10.37,2013-06-06 17:28:00,
2013-06-06 12:29:00,58.5,49.5,29.94,East,100,4.4,8.1,72,0.00,CLR,,0.23,WeatherDisplay:10.37,2013-06-06 17:29:00,
2013-06-06 12:32:00,58.6,50.0,29.94,ESE,121,1.3,4.6,73,0.00,CLR,,0.23,WeatherDisplay:10.37,2013-06-06 17:32:00,
2013-06-06 12:33:00,58.6,49.6,29.94,ESE,110,3.4,5.2,72,0.00,CLR,,0.23,WeatherDisplay:10.37,2013-06-06 17:33:00,
2013-06-06 12:34:00,58.6,49.6,29.94,ESE,102,3.9,5.8,72,0.00,CLR,,0.23,WeatherDisplay:10.37,2013-06-06 17:34:00,
2013-06-06 12:37:00,58.6,49.6,29.94,SE,136,4.6,8.1,72,0.00,CLR,,0.23,WeatherDisplay:10.37,2013-06-06 17:37:00,
2013-06-06 12:38:00,58.6,49.6,29.94,SSW,205,3.9,6.9,72,0.00,CLR,,0.23,WeatherDisplay:10.37,2013-06-06 17:38:00,
2013-06-06 12:39:00,58.5,49.5,29.94,NE,52,3.9,6.9,72,0.00,CLR,,0.23,WeatherDisplay:10.37,2013-06-06 17:39:00,
2013-06-06 12:42:00,58.4,49.4,29.94,SE,136,7.2,8.1,72,0.00,CLR,,0.23,WeatherDisplay:10.37,2013-06-06 17:42:00,
2013-06-06 12:43:00,58.5,49.5,29.94,ESE,120,4.3,5.9,72,0.00,CLR,,0.23,WeatherDisplay:10.37,2013-06-06 17:43:00,
2013-06-06 12:44:00,58.4,49.4,29.94,ESE,107,6.1,6.1,72,0.00,CLR,,0.23,WeatherDisplay:10.37,2013-06-06 17:44:00,
2013-06-06 12:45:00,58.5,49.5,29.94,ESE,114,4.3,9.2,72,0.00,CLR,,0.23,WeatherDisplay:10.37,2013-06-06 17:45:00,
2013-06-06 12:47:00,58.4,49.4,29.94,East,96,5.1,8.1,72,0.00,CLR,,0.23,WeatherDisplay:10.37,2013-06-06 17:47:00,
2013-06-06 12:48:00,58.4,49.4,29.94,SSE,165,3.8,8.1,72,0.00,CLR,,0.23,WeatherDisplay:10.37,2013-06-06 17:48:00,
2013-06-06 12:49:00,58.4,49.4,29.94,NE,56,4.4,6.9,72,0.00,CLR,,0.23,WeatherDisplay:10.37,2013-06-06 17:49:00,
2013-06-06 12:50:00,58.4,49.4,29.94,East,83,4.7,6.9,72,0.00,CLR,,0.23,WeatherDisplay:10.37,2013-06-06 17:50:00,
2013-06-06 12:53:00,58.3,49.3,29.94,SSE,154,4.3,5.8,72,0.00,CLR,,0.23,WeatherDisplay:10.37,2013-06-06 17:53:00,
2013-06-06 12:54:00,58.4,49.4,29.94,ESE,110,3.5,5.8,72,0.00,CLR,,0.23,WeatherDisplay:10.37,2013-06-06 17:54:00,
2013-06-06 12:55:00,58.3,49.3,29.93,ESE,114,4.3,8.6,72,0.00,CLR,,0.23,WeatherDisplay:10.37,2013-06-06 17:55:00,
2013-06-06 12:58:00,58.4,49.8,29.93,NE,44,6.1,11.5,73,0.00,CLR,,0.23,WeatherDisplay:10.37,2013-06-06 17:58:00,
2013-06-06 12:59:00,58.5,49.5,29.93,East,89,6.8,11.5,72,0.00,CLR,,0.23,WeatherDisplay:10.37,2013-06-06 17:59:00,
2013-06-06 13:02:00,58.4,49.4,29.93,SSE,148,6.6,10.4,72,0.00,CLR,,0.23,WeatherDisplay:10.37,2013-06-06 18:02:00,
2013-06-06 13:03:00,58.5,49.5,29.93,ESE,110,5.9,8.1,72,0.00,CLR,,0.23,WeatherDisplay:10.37,2013-06-06 18:03:00,
2013-06-06 13:04:00,58.4,49.4,29.93,ESE,117,5.7,8.1,72,0.00,CLR,,0.23,WeatherDisplay:10.37,2013-06-06 18:04:00,
2013-06-06 13:05:00,58.4,49.4,29.93,North,360,5.8,10.4,72,0.00,CLR,,0.23,WeatherDisplay:10.37,2013-06-06 18:05:00,
2013-06-06 13:07:00,58.5,49.5,29.93,ENE,78,5.7,9.2,72,0.00,CLR,,0.23,WeatherDisplay:10.37,2013-06-06 18:07:00,
2013-06-06 13:08:00,58.7,49.7,29.93,ESE,119,3.7,5.8,72,0.00,CLR,,0.23,WeatherDisplay:10.37,2013-06-06 18:08:00,
2013-06-06 13:09:00,58.6,49.6,29.93,ESE,107,5.7,10.4,72,0.00,CLR,,0.23,WeatherDisplay:10.37,2013-06-06 18:09:00,
2013-06-06 13:10:00,58.7,49.7,29.93,ESE,103,6.5,10.4,72,0.00,CLR,,0.23,WeatherDisplay:10.37,2013-06-06 18:10:00,
2013-06-06 13:11:00,58.8,49.8,29.93,ESE,112,5.9,8.1,72,0.00,CLR,,0.23,WeatherDisplay:10.37,2013-06-06 18:11:00,
2013-06-06 13:13:00,58.9,49.9,29.93,East,85,3.3,8.1,72,0.00,CLR,,0.23,WeatherDisplay:10.37,2013-06-06 18:13:00,
2013-06-06 13:15:00,58.9,49.9,29.93,East,99,5.2,9.2,72,0.00,CLR,,0.23,WeatherDisplay:10.37,2013-06-06 18:15:00,
2013-06-06 13:17:00,59.1,50.1,29.93,NE,56,4.9,9.2,72,0.00,CLR,,0.23,WeatherDisplay:10.37,2013-06-06 18:17:00,
2013-06-06 13:18:00,59.2,50.2,29.93,East,89,5.1,10.8,72,0.00,CLR,,0.23,WeatherDisplay:10.37,2013-06-06 18:18:00,
2013-06-06 13:19:00,59.1,49.7,29.93,East,96,5.1,9.6,71,0.00,CLR,,0.23,WeatherDisplay:10.37,2013-06-06 18:19:00,
2013-06-06 13:21:00,59.2,49.8,29.93,SE,126,5.7,11.5,71,0.00,CLR,,0.23,WeatherDisplay:10.37,2013-06-06 18:21:00,
2013-06-06 13:22:00,59.2,49.4,29.93,ESE,117,5.1,8.4,70,0.00,CLR,,0.23,WeatherDisplay:10.37,2013-06-06 18:22:00,
2013-06-06 13:23:00,59.3,49.5,29.93,East,90,4.8,8.1,70,0.00,CLR,,0.23,WeatherDisplay:10.37,2013-06-06 18:23:00,
2013-06-06 13:24:00,59.3,49.5,29.93,SE,144,5.4,8.1,70,0.00,CLR,,0.23,WeatherDisplay:10.37,2013-06-06 18:24:00,
2013-06-06 13:26:00,59.2,49.4,29.93,SSE,150,3.2,6.9,70,0.00,CLR,,0.23,WeatherDisplay:10.37,2013-06-06 18:26:00,
2013-06-06 13:27:00,59.3,49.5,29.93,ESE,123,5.1,9.6,70,0.00,CLR,,0.23,WeatherDisplay:10.37,2013-06-06 18:27:00,
2013-06-06 13:28:00,59.2,49.0,29.93,East,97,5.9,10.4,69,0.00,CLR,,0.23,WeatherDisplay:10.37,2013-06-06 18:28:00,
2013-06-06 13:30:00,59.2,49.0,29.93,ESE,104,5.3,8.1,69,0.00,CLR,,0.23,WeatherDisplay:10.37,2013-06-06 18:30:00,
2013-06-06 13:31:00,59.1,49.3,29.93,SE,136,4.4,9.2,70,0.00,CLR,,0.23,WeatherDisplay:10.37,2013-06-06 18:31:00,
2013-06-06 13:33:00,59.0,49.2,29.93,South,175,5.4,9.2,70,0.00,CLR,,0.23,WeatherDisplay:10.37,2013-06-06 18:33:00,
2013-06-06 13:34:00,59.1,49.3,29.93,SSE,151,4.3,8.1,70,0.00,CLR,,0.23,WeatherDisplay:10.37,2013-06-06 18:34:00,
2013-06-06 13:35:00,59.0,49.2,29.93,SE,124,4.6,6.9,70,0.00,CLR,,0.23,WeatherDisplay:10.37,2013-06-06 18:35:00,
2013-06-06 13:37:00,58.9,49.1,29.93,ENE,61,3.6,4.6,70,0.00,CLR,,0.23,WeatherDisplay:10.37,2013-06-06 18:37:00,
2013-06-06 13:38:00,58.9,49.1,29.93,East,97,3.7,8.2,70,0.00,CLR,,0.23,WeatherDisplay:10.37,2013-06-06 18:38:00,
2013-06-06 13:40:00,58.8,49.0,29.93,ESE,117,5.1,9.2,70,0.00,CLR,,0.23,WeatherDisplay:10.37,2013-06-06 18:40:00,
2013-06-06 13:42:00,59.0,49.2,29.93,SE,134,3.6,9.2,70,0.00,CLR,,0.23,WeatherDisplay:10.37,2013-06-06 18:42:00,
2013-06-06 13:43:00,58.9,49.1,29.93,East,92,4.0,4.6,70,0.00,CLR,,0.23,WeatherDisplay:10.37,2013-06-06 18:43:00,
2013-06-06 13:45:00,59.0,49.2,29.93,ESE,107,5.7,9.2,70,0.00,CLR,,0.23,WeatherDisplay:10.37,2013-06-06 18:45:00,
2013-06-06 13:48:00,59.0,49.2,29.93,SE,131,3.6,5.8,70,0.00,CLR,,0.23,WeatherDisplay:10.37,2013-06-06 18:48:00,
2013-06-06 13:50:00,59.0,49.2,29.93,SSE,165,3.5,5.1,70,0.00,CLR,,0.23,WeatherDisplay:10.37,2013-06-06 18:50:00,
2013-06-06 13:51:00,59.2,49.4,29.93,ESE,123,4.0,5.8,70,0.00,CLR,,0.23,WeatherDisplay:10.37,2013-06-06 18:51:00,
2013-06-06 13:53:00,59.2,49.4,29.93,ESE,121,2.1,4.6,70,0.00,CLR,,0.23,WeatherDisplay:10.37,2013-06-06 18:53:00,
2013-06-06 13:54:00,59.2,49.4,29.93,ESE,103,3.4,4.8,70,0.00,CLR,,0.23,WeatherDisplay:10.37,2013-06-06 18:54:00,
2013-06-06 13:55:00,59.2,49.4,29.93,NNE,23,4.1,6.9,70,0.00,CLR,,0.23,WeatherDisplay:10.37,2013-06-06 18:55:00,
2013-06-06 13:57:00,59.3,49.5,29.93,SSE,161,3.7,4.6,70,0.00,CLR,,0.23,WeatherDisplay:10.37,2013-06-06 18:57:00,
2013-06-06 13:58:00,59.4,49.6,29.93,SSE,151,3.2,5.8,70,0.00,CLR,,0.23,WeatherDisplay:10.37,2013-06-06 18:58:00,
2013-06-06 13:59:00,59.3,49.5,29.93,East,86,3.5,6.4,70,0.00,CLR,,0.23,WeatherDisplay:10.37,2013-06-06 18:59:00,
2013-06-06 14:02:00,59.3,49.1,29.93,ENE,64,2.3,5.8,69,0.00,CLR,,0.23,WeatherDisplay:10.37,2013-06-06 19:02:00,
2013-06-06 14:03:00,59.4,49.2,29.93,NE,51,4.3,5.0,69,0.00,CLR,,0.23,WeatherDisplay:10.37,2013-06-06 19:03:00,
2013-06-06 14:04:00,59.3,49.1,29.93,East,89,6.0,7.8,69,0.00,CLR,,0.23,WeatherDisplay:10.37,2013-06-06 19:04:00,
2013-06-06 14:07:00,59.2,49.0,29.93,East,86,3.5,4.6,69,0.00,CLR,,0.23,WeatherDisplay:10.37,2013-06-06 19:07:00,
2013-06-06 14:08:00,59.2,49.0,29.93,ESE,113,5.0,6.9,69,0.00,CLR,,0.23,WeatherDisplay:10.37,2013-06-06 19:08:00,
2013-06-06 14:09:00,59.2,49.0,29.93,ESE,112,5.0,6.9,69,0.00,CLR,,0.23,WeatherDisplay:10.37,2013-06-06 19:09:00,
2013-06-06 14:10:00,59.2,49.0,29.93,ESE,123,4.9,6.9,69,0.00,CLR,,0.23,WeatherDisplay:10.37,2013-06-06 19:10:00,
2013-06-06 14:12:00,59.1,48.9,29.93,NE,56,2.1,4.8,69,0.00,CLR,,0.23,WeatherDisplay:10.37,2013-06-06 19:12:00,
2013-06-06 14:13:00,59.1,48.9,29.93,ENE,73,5.7,6.9,69,0.00,CLR,,0.23,WeatherDisplay:10.37,2013-06-06 19:13:00,
2013-06-06 14:14:00,59.1,48.9,29.93,ENE,68,4.4,9.2,69,0.00,CLR,,0.23,WeatherDisplay:10.37,2013-06-06 19:14:00,
2013-06-06 14:15:00,59.0,48.8,29.93,East,95,3.4,5.8,69,0.00,CLR,,0.23,WeatherDisplay:10.37,2013-06-06 19:15:00,
2013-06-06 14:17:00,58.9,48.7,29.93,South,172,3.2,5.8,69,0.00,CLR,,0.23,WeatherDisplay:10.37,2013-06-06 19:17:00,
2013-06-06 14:19:00,58.9,48.7,29.93,ESE,123,4.3,6.9,69,0.00,CLR,,0.23,WeatherDisplay:10.37,2013-06-06 19:19:00,
2013-06-06 14:21:00,58.8,48.6,29.93,SE,137,3.3,5.8,69,0.00,CLR,,0.23,WeatherDisplay:10.37,2013-06-06 19:21:00,
2013-06-06 14:22:00,58.7,48.6,29.93,East,99,3.6,5.8,69,0.00,CLR,,0.23,WeatherDisplay:10.37,2013-06-06 19:22:00,
2013-06-06 14:24:00,58.7,48.6,29.93,East,80,3.9,4.7,69,0.00,CLR,,0.23,WeatherDisplay:10.37,2013-06-06 19:24:00,
2013-06-06 14:25:00,58.6,48.8,29.93,East,93,3.1,6.9,70,0.00,CLR,,0.23,WeatherDisplay:10.37,2013-06-06 19:25:00,
2013-06-06 14:26:00,58.5,48.7,29.94,East,79,1.6,4.6,70,0.00,CLR,,0.23,WeatherDisplay:10.37,2013-06-06 19:26:00,
2013-06-06 14:27:00,58.5,48.7,29.94,East,79,2.8,3.0,70,0.00,CLR,,0.23,WeatherDisplay:10.37,2013-06-06 19:27:00,
2013-06-06 14:29:00,58.5,48.7,29.94,ESE,109,4.4,5.8,70,0.00,CLR,,0.23,WeatherDisplay:10.37,2013-06-06 19:29:00,
2013-06-06 14:30:00,58.4,48.7,29.93,ENE,59,3.6,5.8,70,0.00,CLR,,0.23,WeatherDisplay:10.37,2013-06-06 19:30:00,
2013-06-06 14:32:00,58.5,48.7,29.94,SSE,165,3.5,5.8,70,0.00,CLR,,0.23,WeatherDisplay:10.37,2013-06-06 19:32:00,
2013-06-06 14:33:00,58.4,48.7,29.94,ESE,114,2.0,5.8,70,0.00,CLR,,0.23,WeatherDisplay:10.37,2013-06-06 19:33:00,
2013-06-06 14:34:00,58.5,48.7,29.94,East,93,2.1,3.5,70,0.00,CLR,,0.23,WeatherDisplay:10.37,2013-06-06 19:34:00,
2013-06-06 14:35:00,58.4,48.7,29.94,SE,131,1.7,3.5,70,0.00,CLR,,0.23,WeatherDisplay:10.37,2013-06-06 19:35:00,
2013-06-06 14:37:00,58.5,48.7,29.94,SE,126,4.0,4.6,70,0.00,CLR,,0.23,WeatherDisplay:10.37,2013-06-06 19:37:00,
2013-06-06 14:38:00,58.5,48.7,29.94,ESE,121,2.7,4.6,70,0.00,CLR,,0.23,WeatherDisplay:10.37,2013-06-06 19:38:00,
2013-06-06 14:39:00,58.5,48.7,29.94,ESE,109,2.2,4.6,70,0.00,CLR,,0.23,WeatherDisplay:10.37,2013-06-06 19:39:00,
2013-06-06 14:40:00,58.4,48.7,29.94,East,96,1.7,3.5,70,0.00,CLR,,0.23,WeatherDisplay:10.37,2013-06-06 19:40:00,
2013-06-06 14:43:00,58.3,48.6,29.94,ENE,75,3.2,5.8,70,0.00,CLR,,0.23,WeatherDisplay:10.37,2013-06-06 19:43:00,
2013-06-06 14:44:00,58.4,48.7,29.94,ENE,72,3.3,5.5,70,0.00,CLR,,0.23,WeatherDisplay:10.37,2013-06-06 19:44:00,
2013-06-06 14:45:00,58.3,48.6,29.94,SE,134,3.7,5.8,70,0.00,CLR,,0.23,WeatherDisplay:10.37,2013-06-06 19:45:00,
2013-06-06 14:48:00,58.2,48.8,29.94,ESE,114,3.4,4.6,71,0.00,CLR,,0.23,WeatherDisplay:10.37,2013-06-06 19:48:00,
2013-06-06 14:49:00,58.2,48.8,29.94,SE,128,3.6,4.5,71,0.00,CLR,,0.23,WeatherDisplay:10.37,2013-06-06 19:49:00,
2013-06-06 14:50:00,58.3,48.9,29.94,SE,128,4.1,5.8,71,0.00,CLR,,0.23,WeatherDisplay:10.37,2013-06-06 19:50:00,
2013-06-06 14:53:00,58.2,48.8,29.94,East,90,3.6,3.6,71,0.00,CLR,,0.23,WeatherDisplay:10.37,2013-06-06 19:53:00,
2013-06-06 14:54:00,58.3,48.9,29.94,East,99,3.4,5.8,71,0.00,CLR,,0.23,WeatherDisplay:10.37,2013-06-06 19:54:00,
2013-06-06 14:55:00,58.2,48.8,29.94,ENE,76,3.5,5.8,71,0.00,CLR,,0.23,WeatherDisplay:10.37,2013-06-06 19:55:00,
2013-06-06 14:58:00,58.2,48.8,29.94,East,86,3.1,5.8,71,0.00,CLR,,0.23,WeatherDisplay:10.37,2013-06-06 19:58:00,
2013-06-06 14:59:00,58.2,48.8,29.94,ENE,65,3.4,4.6,71,0.00,CLR,,0.23,WeatherDisplay:10.37,2013-06-06 19:59:00,
2013-06-06 15:00:00,58.3,48.9,29.94,ESE,109,2.4,5.8,71,0.00,CLR,,0.23,WeatherDisplay:10.37,2013-06-06 20:00:00,
2013-06-06 15:03:00,58.1,49.1,29.94,NNE,32,0.0,0.0,72,0.00,CLR,,0.23,WeatherDisplay:10.37,2013-06-06 20:03:00,
2013-06-06 15:04:00,58.1,49.1,29.94,NNE,32,0.0,0.0,72,0.00,CLR,,0.23,WeatherDisplay:10.37,2013-06-06 20:04:00,
2013-06-06 15:05:00,58.1,49.1,29.94,ESE,106,3.8,6.9,72,0.00,CLR,,0.23,WeatherDisplay:10.37,2013-06-06 20:05:00,
2013-06-06 15:09:00,58.1,49.1,29.94,East,86,1.4,3.5,72,0.00,CLR,,0.23,WeatherDisplay:10.37,2013-06-06 20:09:00,
2013-06-06 15:10:00,58.1,49.1,29.94,ENE,65,1.4,2.3,72,0.00,CLR,,0.23,WeatherDisplay:10.37,2013-06-06 20:10:00,
2013-06-06 15:11:00,58.1,49.1,29.94,ESE,102,3.1,5.8,72,0.00,CLR,,0.23,WeatherDisplay:10.37,2013-06-06 20:11:00,
2013-06-06 15:12:00,58.1,49.1,29.94,East,96,3.1,5.8,72,0.00,CLR,,0.23,WeatherDisplay:10.37,2013-06-06 20:12:00,
2013-06-06 15:14:00,58.3,49.3,29.94,SE,131,2.8,4.6,72,0.00,CLR,,0.23,WeatherDisplay:10.37,2013-06-06 20:14:00,
2013-06-06 15:15:00,58.2,49.2,29.94,ESE,121,3.3,4.6,72,0.00,CLR,,0.23,WeatherDisplay:10.37,2013-06-06 20:15:00,
2013-06-06 15:17:00,58.3,49.3,29.94,ENE,65,1.3,5.8,72,0.00,CLR,,0.23,WeatherDisplay:10.37,2013-06-06 20:17:00,
2013-06-06 15:19:00,58.3,49.3,29.94,NE,40,2.4,4.6,72,0.00,CLR,,0.23,WeatherDisplay:10.37,2013-06-06 20:19:00,
2013-06-06 15:20:00,58.3,49.3,29.94,East,83,2.2,4.6,72,0.00,CLR,,0.23,WeatherDisplay:10.37,2013-06-06 20:20:00,
2013-06-06 15:22:00,58.4,49.4,29.94,NNE,16,2.9,5.8,72,0.00,CLR,,0.23,WeatherDisplay:10.37,2013-06-06 20:22:00,
2013-06-06 15:24:00,58.4,49.4,29.94,East,89,2.4,4.6,72,0.00,CLR,,0.23,WeatherDisplay:10.37,2013-06-06 20:24:00,
2013-06-06 15:25:00,58.5,49.5,29.94,ENE,72,1.6,3.5,72,0.00,CLR,,0.23,WeatherDisplay:10.37,2013-06-06 20:25:00,
2013-06-06 15:27:00,58.5,49.5,29.94,East,95,2.7,6.9,72,0.00,CLR,,0.23,WeatherDisplay:10.37,2013-06-06 20:27:00,
2013-06-06 15:29:00,58.5,49.1,29.94,East,82,3.3,5.8,71,0.00,CLR,,0.23,WeatherDisplay:10.37,2013-06-06 20:29:00,
2013-06-06 15:30:00,58.4,49.4,29.94,NE,45,2.4,5.8,72,0.00,CLR,,0.23,WeatherDisplay:10.37,2013-06-06 20:30:00,
2013-06-06 15:31:00,58.5,49.5,29.94,East,85,3.6,5.8,72,0.00,CLR,,0.23,WeatherDisplay:10.37,2013-06-06 20:31:00,
2013-06-06 15:32:00,58.4,49.4,29.94,ENE,72,3.0,5.0,72,0.00,CLR,,0.23,WeatherDisplay:10.37,2013-06-06 20:32:00,
2013-06-06 15:34:00,58.4,49.4,29.94,NE,35,3.8,6.9,72,0.00,CLR,,0.23,WeatherDisplay:10.37,2013-06-06 20:34:00,
2013-06-06 15:35:00,58.4,49.4,29.94,SSW,208,1.9,4.6,72,0.00,CLR,,0.23,WeatherDisplay:10.37,2013-06-06 20:35:00,
2013-06-06 15:36:00,58.4,49.4,29.94,ENE,75,1.4,2.3,72,0.00,CLR,,0.23,WeatherDisplay:10.37,2013-06-06 20:36:00,
2013-06-06 15:37:00,58.4,49.4,29.94,NNE,21,3.2,3.5,72,0.00,CLR,,0.23,WeatherDisplay:10.37,2013-06-06 20:37:00,
2013-06-06 15:38:00,58.4,49.4,29.94,ENE,78,2.7,3.5,72,0.00,CLR,,0.23,WeatherDisplay:10.37,2013-06-06 20:38:00,
2013-06-06 15:39:00,58.5,49.5,29.94,ESE,116,2.9,3.5,72,0.00,CLR,,0.23,WeatherDisplay:10.37,2013-06-06 20:39:00,
2013-06-06 15:40:00,58.5,49.5,29.94,NE,52,3.1,3.5,72,0.00,CLR,,0.23,WeatherDisplay:10.37,2013-06-06 20:40:00,
2013-06-06 15:41:00,58.4,49.4,29.94,East,85,1.4,4.6,72,0.00,CLR,,0.23,WeatherDisplay:10.37,2013-06-06 20:41:00,
2013-06-06 15:43:00,58.4,49.4,29.94,ENE,71,3.5,5.2,72,0.00,CLR,,0.23,WeatherDisplay:10.37,2013-06-06 20:43:00,
2013-06-06 15:44:00,58.4,49.4,29.94,East,82,3.9,6.9,72,0.00,CLR,,0.23,WeatherDisplay:10.37,2013-06-06 20:44:00,
2013-06-06 15:45:00,58.4,49.4,29.94,NNE,17,2.2,6.9,72,0.00,CLR,,0.23,WeatherDisplay:10.37,2013-06-06 20:45:00,
2013-06-06 15:46:00,58.5,49.5,29.94,ENE,61,3.3,5.8,72,0.00,CLR,,0.23,WeatherDisplay:10.37,2013-06-06 20:46:00,
2013-06-06 15:48:00,58.4,49.4,29.94,WSW,256,2.5,4.6,72,0.00,CLR,,0.23,WeatherDisplay:10.37,2013-06-06 20:48:00,
2013-06-06 15:49:00,58.5,49.5,29.94,NE,37,3.8,6.9,72,0.00,CLR,,0.23,WeatherDisplay:10.37,2013-06-06 20:49:00,
2013-06-06 15:50:00,58.5,49.5,29.94,ENE,66,3.8,6.9,72,0.00,CLR,,0.23,WeatherDisplay:10.37,2013-06-06 20:50:00,
2013-06-06 15:52:00,58.5,49.5,29.93,NNE,17,2.5,4.6,72,0.00,CLR,,0.23,WeatherDisplay:10.37,2013-06-06 20:52:00,
2013-06-06 15:53:00,58.4,49.4,29.94,ENE,72,1.6,2.3,72,0.00,CLR,,0.23,WeatherDisplay:10.37,2013-06-06 20:53:00,
2013-06-06 15:55:00,58.4,49.4,29.94,NE,47,1.2,2.3,72,0.00,CLR,,0.23,WeatherDisplay:10.37,2013-06-06 20:55:00,
2013-06-06 15:56:00,58.5,49.5,29.94,NE,44,1.7,2.7,72,0.00,CLR,,0.23,WeatherDisplay:10.37,2013-06-06 20:56:00,
2013-06-06 15:57:00,58.4,49.4,29.93,NE,40,3.6,4.4,72,0.00,CLR,,0.23,WeatherDisplay:10.37,2013-06-06 20:57:00,
2013-06-06 15:58:00,58.4,49.4,29.94,ENE,64,3.1,4.6,72,0.00,CLR,,0.23,WeatherDisplay:10.37,2013-06-06 20:58:00,
2013-06-06 16:00:00,58.4,49.4,29.94,East,80,4.4,8.1,72,0.00,CLR,,0.23,WeatherDisplay:10.37,2013-06-06 21:00:00,
2013-06-06 16:01:00,58.4,49.4,29.94,East,99,2.6,5.8,72,0.00,CLR,,0.23,WeatherDisplay:10.37,2013-06-06 21:01:00,
2013-06-06 16:02:00,58.4,49.4,29.94,NNE,13,1.3,4.6,72,0.00,CLR,,0.23,WeatherDisplay:10.37,2013-06-06 21:02:00,
2013-06-06 16:03:00,58.4,49.4,29.93,NNW,340,3.2,4.6,72,0.00,CLR,,0.23,WeatherDisplay:10.37,2013-06-06 21:03:00,
2013-06-06 16:04:00,58.5,49.5,29.94,NE,49,3.7,5.8,72,0.00,CLR,,0.23,WeatherDisplay:10.37,2013-06-06 21:04:00,
2013-06-06 16:05:00,58.5,49.5,29.94,NE,52,1.6,5.8,72,0.00,CLR,,0.23,WeatherDisplay:10.37,2013-06-06 21:05:00,
2013-06-06 16:07:00,58.5,49.5,29.94,NNE,13,1.7,3.5,72,0.00,CLR,,0.23,WeatherDisplay:10.37,2013-06-06 21:07:00,
2013-06-06 16:09:00,58.4,49.4,29.94,ESE,116,3.0,5.2,72,0.00,CLR,,0.23,WeatherDisplay:10.37,2013-06-06 21:09:00,
2013-06-06 16:10:00,58.4,49.4,29.94,NNE,32,3.3,5.8,72,0.00,CLR,,0.23,WeatherDisplay:10.37,2013-06-06 21:10:00,
2013-06-06 16:13:00,58.5,49.5,29.94,NNE,21,1.1,6.1,72,0.00,CLR,,0.23,WeatherDisplay:10.37,2013-06-06 21:13:00,
2013-06-06 16:14:00,58.4,49.4,29.94,East,82,4.3,4.3,72,0.00,CLR,,0.23,WeatherDisplay:10.37,2013-06-06 21:14:00,
2013-06-06 16:15:00,58.4,49.4,29.94,SE,137,3.6,6.9,72,0.00,CLR,,0.23,WeatherDisplay:10.37,2013-06-06 21:15:00,
2013-06-06 16:18:00,58.4,49.4,29.94,NE,37,3.7,5.8,72,0.00,CLR,,0.23,WeatherDisplay:10.37,2013-06-06 21:18:00,
2013-06-06 16:19:00,58.4,49.4,29.94,NNE,31,3.2,6.9,72,0.00,CLR,,0.23,WeatherDisplay:10.37,2013-06-06 21:19:00,
2013-06-06 16:20:00,58.4,49.4,29.94,North,350,2.8,5.8,72,0.00,CLR,,0.23,WeatherDisplay:10.37,2013-06-06 21:20:00,
2013-06-06 16:23:00,58.4,49.4,29.94,East,89,2.1,5.8,72,0.00,CLR,,0.23,WeatherDisplay:10.37,2013-06-06 21:23:00,
2013-06-06 16:24:00,58.5,49.5,29.94,ESE,123,1.0,2.8,72,0.00,CLR,,0.23,WeatherDisplay:10.37,2013-06-06 21:24:00,
2013-06-06 16:25:00,58.4,49.4,29.94,NNE,25,3.3,5.7,72,0.00,CLR,,0.23,WeatherDisplay:10.37,2013-06-06 21:25:00,
2013-06-06 16:28:00,58.4,49.4,29.94,East,92,4.6,6.9,72,0.00,CLR,,0.23,WeatherDisplay:10.37,2013-06-06 21:28:00,
2013-06-06 16:29:00,58.5,49.5,29.94,NE,47,1.8,5.8,72,0.00,CLR,,0.23,WeatherDisplay:10.37,2013-06-06 21:29:00,
2013-06-06 16:30:00,58.3,49.3,29.94,NE,49,1.9,3.5,72,0.00,CLR,,0.23,WeatherDisplay:10.37,2013-06-06 21:30:00,
2013-06-06 16:33:00,58.4,49.4,29.94,ESE,110,2.0,3.5,72,0.00,CLR,,0.23,WeatherDisplay:10.37,2013-06-06 21:33:00,
2013-06-06 16:34:00,58.4,49.4,29.94,East,99,3.3,3.5,72,0.00,CLR,,0.23,WeatherDisplay:10.37,2013-06-06 21:34:00,
2013-06-06 16:35:00,58.4,49.4,29.94,ESE,103,2.9,5.8,72,0.00,CLR,,0.23,WeatherDisplay:10.37,2013-06-06 21:35:00,
2013-06-06 16:38:00,58.3,49.3,29.94,East,100,4.4,8.1,72,0.00,CLR,,0.23,WeatherDisplay:10.37,2013-06-06 21:38:00,
2013-06-06 16:39:00,58.3,49.3,29.94,ENE,58,2.4,5.8,72,0.00,CLR,,0.23,WeatherDisplay:10.37,2013-06-06 21:39:00,
2013-06-06 16:40:00,58.2,49.2,29.94,NE,41,1.4,3.5,72,0.00,CLR,,0.23,WeatherDisplay:10.37,2013-06-06 21:40:00,
2013-06-06 16:43:00,58.2,49.2,29.94,North,6,2.4,9.2,72,0.00,CLR,,0.23,WeatherDisplay:10.37,2013-06-06 21:43:00,
2013-06-06 16:44:00,58.2,49.2,29.94,East,85,4.0,6.9,72,0.00,CLR,,0.23,WeatherDisplay:10.37,2013-06-06 21:44:00,
2013-06-06 16:45:00,58.3,49.3,29.94,ESE,110,3.3,5.8,72,0.00,CLR,,0.23,WeatherDisplay:10.37,2013-06-06 21:45:00,
2013-06-06 16:46:00,58.2,48.8,29.94,SSE,167,3.2,4.6,71,0.00,CLR,,0.23,WeatherDisplay:10.37,2013-06-06 21:46:00,
2013-06-06 16:48:00,58.2,48.8,29.94,SE,145,2.5,5.2,71,0.00,CLR,,0.23,WeatherDisplay:10.37,2013-06-06 21:48:00,
2013-06-06 16:50:00,58.3,48.9,29.94,SE,140,3.5,5.8,71,0.00,CLR,,0.23,WeatherDisplay:10.37,2013-06-06 21:50:00,
2013-06-06 16:51:00,58.2,48.8,29.94,SSE,160,5.1,8.1,71,0.00,CLR,,0.23,WeatherDisplay:10.37,2013-06-06 21:51:00,
2013-06-06 16:54:00,58.2,48.8,29.94,East,99,2.1,5.8,71,0.00,CLR,,0.23,WeatherDisplay:10.37,2013-06-06 21:54:00,
2013-06-06 16:55:00,58.2,48.8,29.94,East,90,5.2,6.9,71,0.00,CLR,,0.23,WeatherDisplay:10.37,2013-06-06 21:55:00,
2013-06-06 16:56:00,58.2,48.8,29.94,SE,141,2.4,6.9,71,0.00,CLR,,0.23,WeatherDisplay:10.37,2013-06-06 21:56:00,
2013-06-06 16:57:00,58.2,48.8,29.94,ESE,121,2.5,6.9,71,0.00,CLR,,0.23,WeatherDisplay:10.37,2013-06-06 21:57:00,
2013-06-06 16:59:00,58.2,48.8,29.94,SE,134,4.7,5.7,71,0.00,CLR,,0.23,WeatherDisplay:10.37,2013-06-06 21:59:00,
2013-06-06 17:00:00,58.2,48.5,29.94,ESE,103,4.4,6.9,70,0.00,CLR,,0.23,WeatherDisplay:10.37,2013-06-06 22:00:00,
2013-06-06 17:03:00,58.2,48.5,29.94,ESE,109,3.5,8.1,70,0.00,CLR,,0.23,WeatherDisplay:10.37,2013-06-06 22:03:00,
2013-06-06 17:04:00,58.1,48.4,29.94,ESE,116,3.9,5.8,70,0.00,CLR,,0.23,WeatherDisplay:10.37,2013-06-06 22:04:00,
2013-06-06 17:05:00,58.1,48.4,29.94,ENE,76,3.2,5.8,70,0.00,CLR,,0.23,WeatherDisplay:10.37,2013-06-06 22:05:00,
2013-06-06 17:08:00,58.1,48.4,29.94,ESE,121,1.3,3.5,70,0.00,CLR,,0.23,WeatherDisplay:10.37,2013-06-06 22:08:00,
2013-06-06 17:09:00,58.1,48.7,29.94,SE,143,3.2,5.8,71,0.00,CLR,,0.23,WeatherDisplay:10.37,2013-06-06 22:09:00,
2013-06-06 17:10:00,58.1,48.7,29.94,ESE,110,3.0,5.8,71,0.00,CLR,,0.23,WeatherDisplay:10.37,2013-06-06 22:10:00,
2013-06-06 17:13:00,58.0,48.6,29.94,East,99,3.2,3.5,71,0.00,CLR,,0.23,WeatherDisplay:10.37,2013-06-06 22:13:00,
2013-06-06 17:14:00,58.0,48.6,29.95,ESE,107,4.3,6.9,71,0.00,CLR,,0.23,WeatherDisplay:10.37,2013-06-06 22:14:00,
2013-06-06 17:15:00,58.0,48.3,29.95,ESE,106,2.1,6.9,70,0.00,CLR,,0.23,WeatherDisplay:10.37,2013-06-06 22:15:00,
2013-06-06 17:18:00,57.9,48.6,29.95,ESE,113,2.6,3.7,71,0.00,CLR,,0.23,WeatherDisplay:10.37,2013-06-06 22:18:00,
2013-06-06 17:19:00,58.0,48.6,29.95,SE,126,0.8,2.3,71,0.00,CLR,,0.23,WeatherDisplay:10.37,2013-06-06 22:19:00,
2013-06-06 17:20:00,58.0,48.6,29.94,ENE,76,1.6,2.3,71,0.00,CLR,,0.23,WeatherDisplay:10.37,2013-06-06 22:20:00,
2013-06-06 17:21:00,58.0,48.6,29.94,ENE,72,1.6,2.3,71,0.00,CLR,,0.23,WeatherDisplay:10.37,2013-06-06 22:21:00,
2013-06-06 17:23:00,58.0,48.6,29.95,NE,35,3.1,4.6,71,0.00,CLR,,0.23,WeatherDisplay:10.37,2013-06-06 22:23:00,
2013-06-06 17:25:00,57.9,48.6,29.94,ESE,110,2.3,3.5,71,0.00,CLR,,0.23,WeatherDisplay:10.37,2013-06-06 22:25:00,
2013-06-06 17:26:00,57.9,48.6,29.94,ESE,123,3.4,5.8,71,0.00,CLR,,0.23,WeatherDisplay:10.37,2013-06-06 22:26:00,
2013-06-06 17:28:00,57.8,48.5,29.94,East,89,2.5,6.9,71,0.00,CLR,,0.23,WeatherDisplay:10.37,2013-06-06 22:28:00,
2013-06-06 17:30:00,57.9,48.6,29.94,ESE,106,3.8,4.6,71,0.00,CLR,,0.23,WeatherDisplay:10.37,2013-06-06 22:30:00,
2013-06-06 17:31:00,57.9,48.6,29.94,NE,54,3.1,5.8,71,0.00,CLR,,0.23,WeatherDisplay:10.37,2013-06-06 22:31:00,
2013-06-06 17:33:00,57.9,48.9,29.94,ESE,102,2.1,4.6,72,0.00,CLR,,0.23,WeatherDisplay:10.37,2013-06-06 22:33:00,
2013-06-06 17:35:00,57.9,48.9,29.94,SE,143,2.1,4.6,72,0.00,CLR,,0.23,WeatherDisplay:10.37,2013-06-06 22:35:00,
2013-06-06 17:37:00,57.9,48.9,29.94,SE,144,3.5,7.0,72,0.00,CLR,,0.23,WeatherDisplay:10.37,2013-06-06 22:37:00,
2013-06-06 17:38:00,57.8,48.8,29.94,ENE,66,1.7,2.6,72,0.00,CLR,,0.23,WeatherDisplay:10.37,2013-06-06 22:38:00,
2013-06-06 17:39:00,57.9,48.9,29.94,ESE,114,2.2,2.4,72,0.00,CLR,,0.23,WeatherDisplay:10.37,2013-06-06 22:39:00,
2013-06-06 17:40:00,57.8,48.8,29.94,SE,136,4.0,6.9,72,0.00,CLR,,0.23,WeatherDisplay:10.37,2013-06-06 22:40:00,
2013-06-06 17:42:00,57.8,48.8,29.94,East,96,2.7,3.5,72,0.00,CLR,,0.23,WeatherDisplay:10.37,2013-06-06 22:42:00,
2013-06-06 17:43:00,57.9,48.9,29.94,East,80,2.4,4.6,72,0.00,CLR,,0.23,WeatherDisplay:10.37,2013-06-06 22:43:00,
2013-06-06 17:44:00,57.8,48.8,29.94,East,88,2.6,4.6,72,0.00,CLR,,0.23,WeatherDisplay:10.37,2013-06-06 22:44:00,
2013-06-06 17:46:00,57.8,48.8,29.94,East,93,1.4,2.3,72,0.00,CLR,,0.23,WeatherDisplay:10.37,2013-06-06 22:46:00,
2013-06-06 17:47:00,57.7,48.7,29.94,ENE,78,0.4,1.6,72,0.00,CLR,,0.23,WeatherDisplay:10.37,2013-06-06 22:47:00,
2013-06-06 17:49:00,57.7,48.7,29.94,East,86,1.3,3.5,72,0.00,CLR,,0.23,WeatherDisplay:10.37,2013-06-06 22:49:00,
2013-06-06 17:51:00,57.8,48.8,29.94,NNE,28,0.0,0.0,72,0.00,CLR,,0.23,WeatherDisplay:10.37,2013-06-06 22:51:00,
2013-06-06 17:52:00,57.8,48.8,29.94,NNE,28,0.0,0.0,72,0.00,CLR,,0.23,WeatherDisplay:10.37,2013-06-06 22:52:00,
2013-06-06 17:54:00,57.8,48.8,29.94,East,92,1.1,3.5,72,0.00,CLR,,0.23,WeatherDisplay:10.37,2013-06-06 22:54:00,
2013-06-06 17:55:00,57.7,48.7,29.94,SE,130,3.0,3.5,72,0.00,CLR,,0.23,WeatherDisplay:10.37,2013-06-06 22:55:00,
2013-06-06 17:57:00,57.7,48.7,29.94,ENE,61,1.7,4.6,72,0.00,CLR,,0.23,WeatherDisplay:10.37,2013-06-06 22:57:00,
2013-06-06 17:58:00,57.7,48.7,29.94,ESE,104,3.0,3.5,72,0.00,CLR,,0.23,WeatherDisplay:10.37,2013-06-06 22:58:00,
2013-06-06 17:59:00,57.7,48.7,29.94,East,83,3.2,3.5,72,0.00,CLR,,0.23,WeatherDisplay:10.37,2013-06-06 22:59:00,
2013-06-06 18:00:00,57.6,48.6,29.94,NE,55,3.9,6.9,72,0.00,CLR,,0.23,WeatherDisplay:10.37,2013-06-06 23:00:00,
2013-06-06 18:02:00,57.6,48.6,29.94,East,82,2.4,6.9,72,0.00,CLR,,0.23,WeatherDisplay:10.37,2013-06-06 23:02:00,
2013-06-06 18:03:00,57.7,48.7,29.94,NE,35,2.8,3.5,72,0.00,CLR,,0.23,WeatherDisplay:10.37,2013-06-06 23:03:00,
2013-06-06 18:04:00,57.6,48.6,29.94,ENE,65,3.0,4.6,72,0.00,CLR,,0.23,WeatherDisplay:10.37,2013-06-06 23:04:00,
2013-06-06 18:05:00,57.5,48.5,29.94,NE,48,1.9,2.5,72,0.00,CLR,,0.23,WeatherDisplay:10.37,2013-06-06 23:05:00,
2013-06-06 18:07:00,57.5,48.9,29.94,East,89,2.3,3.5,73,0.00,CLR,,0.23,WeatherDisplay:10.37,2013-06-06 23:07:00,
2013-06-06 18:08:00,57.6,49.0,29.94,SE,134,2.4,3.5,73,0.00,CLR,,0.23,WeatherDisplay:10.37,2013-06-06 23:08:00,
2013-06-06 18:09:00,57.6,49.0,29.94,ENE,66,3.7,10.4,73,0.00,CLR,,0.23,WeatherDisplay:10.37,2013-06-06 23:09:00,
2013-06-06 18:11:00,57.7,49.1,29.94,SE,127,2.4,6.9,73,0.00,CLR,,0.23,WeatherDisplay:10.37,2013-06-06 23:11:00,
2013-06-06 18:13:00,57.6,49.0,29.94,ESE,123,1.1,3.5,73,0.00,CLR,,0.23,WeatherDisplay:10.37,2013-06-06 23:13:00,
2013-06-06 18:14:00,57.5,48.9,29.94,ESE,109,3.5,6.9,73,0.00,CLR,,0.23,WeatherDisplay:10.37,2013-06-06 23:14:00,
2013-06-06 18:16:00,57.6,49.0,29.94,East,80,1.7,4.6,73,0.00,CLR,,0.23,WeatherDisplay:10.37,2013-06-06 23:16:00,
2013-06-06 18:18:00,57.7,49.1,29.94,SSE,152,2.0,4.6,73,0.00,CLR,,0.23,WeatherDisplay:10.37,2013-06-06 23:18:00,
2013-06-06 18:19:00,57.5,48.9,29.94,ENE,69,3.3,5.8,73,0.00,CLR,,0.23,WeatherDisplay:10.37,2013-06-06 23:19:00,
2013-06-06 18:21:00,57.5,48.9,29.94,NE,49,4.6,8.1,73,0.00,CLR,,0.23,WeatherDisplay:10.37,2013-06-06 23:21:00,
2013-06-06 18:23:00,57.6,49.0,29.94,East,85,3.0,6.9,73,0.00,CLR,,0.23,WeatherDisplay:10.37,2013-06-06 23:23:00,
2013-06-06 18:24:00,57.5,48.9,29.94,ENE,59,4.3,7.7,73,0.00,CLR,,0.23,WeatherDisplay:10.37,2013-06-06 23:24:00,
2013-06-06 18:26:00,57.5,48.9,29.94,NE,52,4.6,8.1,73,0.00,CLR,,0.23,WeatherDisplay:10.37,2013-06-06 23:26:00,
2013-06-06 18:28:00,57.5,48.9,29.94,ENE,65,3.4,6.9,73,0.00,CLR,,0.23,WeatherDisplay:10.37,2013-06-06 23:28:00,
2013-06-06 18:29:00,57.4,48.8,29.94,NNE,23,3.0,5.8,73,0.00,CLR,,0.23,WeatherDisplay:10.37,2013-06-06 23:29:00,
2013-06-06 18:30:00,57.4,49.2,29.94,ESE,114,2.4,5.8,74,0.00,CLR,,0.23,WeatherDisplay:10.37,2013-06-06 23:30:00,
2013-06-06 18:32:00,57.2,49.0,29.94,East,82,3.5,5.8,74,0.00,CLR,,0.23,WeatherDisplay:10.37,2013-06-06 23:32:00,
2013-06-06 18:33:00,57.3,49.1,29.94,East,88,5.8,9.2,74,0.00,CLR,,0.23,WeatherDisplay:10.37,2013-06-06 23:33:00,
2013-06-06 18:34:00,57.2,49.0,29.94,NE,40,3.1,9.2,74,0.00,CLR,,0.23,WeatherDisplay:10.37,2013-06-06 23:34:00,
2013-06-06 18:35:00,57.2,49.0,29.94,NE,51,2.2,3.5,74,0.00,CLR,,0.23,WeatherDisplay:10.37,2013-06-06 23:35:00,
2013-06-06 18:38:00,57.2,49.0,29.94,ENE,68,4.4,7.4,74,0.00,CLR,,0.23,WeatherDisplay:10.37,2013-06-06 23:38:00,
2013-06-06 18:39:00,57.2,49.0,29.94,NE,56,4.2,6.9,74,0.00,CLR,,0.23,WeatherDisplay:10.37,2013-06-06 23:39:00,
2013-06-06 18:40:00,57.1,48.9,29.94,ESE,102,4.0,6.9,74,0.00,CLR,,0.23,WeatherDisplay:10.37,2013-06-06 23:40:00,
2013-06-06 18:43:00,57.1,49.2,29.94,ENE,75,1.2,2.2,75,0.00,CLR,,0.23,WeatherDisplay:10.37,2013-06-06 23:43:00,
2013-06-06 18:44:00,57.0,49.2,29.94,East,93,1.4,2.3,75,0.00,CLR,,0.23,WeatherDisplay:10.37,2013-06-06 23:44:00,
2013-06-06 18:45:00,57.0,49.2,29.94,ESE,114,2.1,2.3,75,0.00,CLR,,0.23,WeatherDisplay:10.37,2013-06-06 23:45:00,
2013-06-06 18:48:00,56.9,49.1,29.93,North,360,4.1,5.8,75,0.00,CLR,,0.23,WeatherDisplay:10.37,2013-06-06 23:48:00,
2013-06-06 18:49:00,57.0,49.2,29.93,NNE,25,4.3,8.1,75,0.00,CLR,,0.23,WeatherDisplay:10.37,2013-06-06 23:49:00,
2013-06-06 18:50:00,57.0,49.2,29.93,NE,56,4.8,9.2,75,0.00,CLR,,0.23,WeatherDisplay:10.37,2013-06-06 23:50:00,
2013-06-06 18:53:00,56.9,49.1,29.93,East,79,2.7,4.6,75,0.00,CLR,,0.23,WeatherDisplay:10.37,2013-06-06 23:53:00,
2013-06-06 18:54:00,56.9,49.1,29.93,ENE,61,5.3,9.2,75,0.00,CLR,,0.23,WeatherDisplay:10.37,2013-06-06 23:54:00,
2013-06-06 18:55:00,56.9,49.1,29.93,ENE,78,5.4,9.2,75,0.00,CLR,,0.23,WeatherDisplay:10.37,2013-06-06 23:55:00,
2013-06-06 18:59:00,56.9,49.1,29.94,ENE,69,5.0,8.1,75,0.00,CLR,,0.23,WeatherDisplay:10.37,2013-06-06 23:59:00,
2013-06-06 19:00:00,56.8,49.0,29.94,NE,47,6.9,8.1,75,0.00,CLR,,0.23,WeatherDisplay:10.37,2013-06-07 00:00:00,
2013-06-06 19:04:00,56.7,48.9,29.94,NE,45,3.4,5.8,75,0.00,CLR,,0.23,WeatherDisplay:10.37,2013-06-07 00:04:00,
2013-06-06 19:05:00,56.6,48.8,29.94,NE,56,4.5,6.9,75,0.00,CLR,,0.23,WeatherDisplay:10.37,2013-06-07 00:05:00,
2013-06-06 19:06:00,56.7,48.9,29.94,NNE,27,5.8,8.1,75,0.00,CLR,,0.23,WeatherDisplay:10.37,2013-06-07 00:06:00,
2013-06-06 19:09:00,56.5,48.7,29.94,ESE,123,1.6,3.5,75,0.00,CLR,,0.23,WeatherDisplay:10.37,2013-06-07 00:09:00,
2013-06-06 19:10:00,56.5,48.7,29.94,SSE,155,2.5,3.5,75,0.00,CLR,,0.23,WeatherDisplay:10.37,2013-06-07 00:10:00,
2013-06-06 19:11:00,56.4,48.6,29.94,ENE,62,4.6,9.2,75,0.00,CLR,,0.23,WeatherDisplay:10.37,2013-06-07 00:11:00,
2013-06-06 19:14:00,56.3,48.5,29.94,ESE,103,2.3,5.8,75,0.00,CLR,,0.23,WeatherDisplay:10.37,2013-06-07 00:14:00,
2013-06-06 19:15:00,56.3,48.5,29.94,NE,34,2.4,4.6,75,0.00,CLR,,0.23,WeatherDisplay:10.37,2013-06-07 00:15:00,
2013-06-06 19:17:00,56.3,48.5,29.93,NE,56,2.0,5.8,75,0.00,CLR,,0.23,WeatherDisplay:10.37,2013-06-07 00:17:00,
2013-06-06 19:18:00,56.2,48.4,29.94,ENE,64,4.4,6.9,75,0.00,CLR,,0.23,WeatherDisplay:10.37,2013-06-07 00:18:00,
2013-06-06 19:20:00,56.2,48.4,29.94,NE,49,3.5,5.8,75,0.00,CLR,,0.23,WeatherDisplay:10.37,2013-06-07 00:20:00,
2013-06-06 19:21:00,56.1,48.3,29.94,East,95,2.1,5.8,75,0.00,CLR,,0.23,WeatherDisplay:10.37,2013-06-07 00:21:00,
2013-06-06 19:22:00,56.1,48.3,29.94,ENE,59,3.8,3.9,75,0.00,CLR,,0.23,WeatherDisplay:10.37,2013-06-07 00:22:00,
2013-06-06 19:23:00,56.1,48.3,29.94,ENE,75,3.0,6.9,75,0.00,CLR,,0.23,WeatherDisplay:10.37,2013-06-07 00:23:00,
2013-06-06 19:25:00,56.1,48.3,29.94,East,85,5.9,8.1,75,0.00,CLR,,0.23,WeatherDisplay:10.37,2013-06-07 00:25:00,
2013-06-06 19:26:00,56.1,48.3,29.94,East,86,4.6,8.1,75,0.00,CLR,,0.23,WeatherDisplay:10.37,2013-06-07 00:26:00,
2013-06-06 19:27:00,56.1,48.3,29.94,ESE,106,4.6,6.9,75,0.00,CLR,,0.23,WeatherDisplay:10.37,2013-06-07 00:27:00,
2013-06-06 19:29:00,56.0,48.2,29.94,ESE,107,3.2,5.8,75,0.00,CLR,,0.23,WeatherDisplay:10.37,2013-06-07 00:29:00,
2013-06-06 19:30:00,56.0,48.2,29.94,East,88,4.2,9.0,75,0.00,CLR,,0.23,WeatherDisplay:10.37,2013-06-07 00:30:00,
2013-06-06 19:31:00,56.0,48.2,29.94,NE,52,4.7,9.2,75,0.00,CLR,,0.23,WeatherDisplay:10.37,2013-06-07 00:31:00,
2013-06-06 19:33:00,56.0,48.2,29.94,ENE,78,3.9,9.2,75,0.00,CLR,,0.23,WeatherDisplay:10.37,2013-06-07 00:33:00,
2013-06-06 19:34:00,56.0,48.2,29.94,NE,54,3.5,5.8,75,0.00,CLR,,0.23,WeatherDisplay:10.37,2013-06-07 00:34:00,
2013-06-06 19:35:00,55.9,48.1,29.94,ENE,73,3.4,5.8,75,0.00,CLR,,0.23,WeatherDisplay:10.37,2013-06-07 00:35:00,
2013-06-06 19:36:00,55.9,48.1,29.94,NE,56,3.9,6.9,75,0.00,CLR,,0.23,WeatherDisplay:10.37,2013-06-07 00:36:00,
2013-06-06 19:39:00,55.9,48.4,29.94,NE,52,1.3,3.5,76,0.00,CLR,,0.23,WeatherDisplay:10.37,2013-06-07 00:39:00,
2013-06-06 19:40:00,55.9,48.4,29.94,East,86,4.0,4.0,76,0.00,CLR,,0.23,WeatherDisplay:10.37,2013-06-07 00:40:00,
2013-06-06 19:41:00,55.8,48.3,29.94,North,352,3.8,8.1,76,0.00,CLR,,0.23,WeatherDisplay:10.37,2013-06-07 00:41:00,
2013-06-06 19:42:00,55.8,48.3,29.94,NNE,31,3.8,5.8,76,0.00,CLR,,0.23,WeatherDisplay:10.37,2013-06-07 00:42:00,
2013-06-06 19:44:00,55.8,48.3,29.94,NNE,32,5.1,6.0,76,0.00,CLR,,0.23,WeatherDisplay:10.37,2013-06-07 00:44:00,
2013-06-06 19:46:00,55.7,48.2,29.94,NE,42,3.4,6.9,76,0.00,CLR,,0.23,WeatherDisplay:10.37,2013-06-07 00:46:00,
2013-06-06 19:47:00,55.7,48.6,29.94,ESE,103,3.5,5.8,77,0.00,CLR,,0.23,WeatherDisplay:10.37,2013-06-07 00:47:00,
2013-06-06 19:49:00,55.6,48.5,29.94,ENE,61,3.1,4.6,77,0.00,CLR,,0.23,WeatherDisplay:10.37,2013-06-07 00:49:00,
2013-06-06 19:51:00,55.7,48.6,29.94,East,85,1.7,5.8,77,0.00,CLR,,0.23,WeatherDisplay:10.37,2013-06-07 00:51:00,
2013-06-06 19:52:00,55.6,48.5,29.94,ENE,71,2.7,4.6,77,0.00,CLR,,0.23,WeatherDisplay:10.37,2013-06-07 00:52:00,
2013-06-06 19:54:00,55.6,48.5,29.94,East,79,2.5,5.8,77,0.00,CLR,,0.23,WeatherDisplay:10.37,2013-06-07 00:54:00,
2013-06-06 19:55:00,55.5,48.4,29.94,NE,55,1.6,3.5,77,0.00,CLR,,0.23,WeatherDisplay:10.37,2013-06-07 00:55:00,
2013-06-06 19:56:00,55.5,48.4,29.94,ESE,121,2.4,4.6,77,0.00,CLR,,0.23,WeatherDisplay:10.37,2013-06-07 00:56:00,
2013-06-06 19:57:00,55.5,48.8,29.94,ENE,73,2.1,3.5,78,0.00,CLR,,0.23,WeatherDisplay:10.37,2013-06-07 00:57:00,
2013-06-06 19:58:00,55.4,48.7,29.94,NNE,30,2.3,3.5,78,0.00,CLR,,0.23,WeatherDisplay:10.37,2013-06-07 00:58:00,
2013-06-06 19:59:00,55.4,48.7,29.94,ENE,59,1.5,3.5,78,0.00,CLR,,0.23,WeatherDisplay:10.37,2013-06-07 00:59:00,
2013-06-06 20:00:00,55.5,48.8,29.94,ESE,102,2.4,5.8,78,0.00,CLR,,0.23,WeatherDisplay:10.37,2013-06-07 01:00:00,
2013-06-06 20:02:00,55.4,48.7,29.94,East,79,1.9,4.2,78,0.00,CLR,,0.23,WeatherDisplay:10.37,2013-06-07 01:02:00,
2013-06-06 20:03:00,55.4,48.7,29.94,North,4,4.0,5.8,78,0.00,CLR,,0.23,WeatherDisplay:10.37,2013-06-07 01:03:00,
2013-06-06 20:04:00,55.3,48.6,29.94,ESE,106,2.7,4.6,78,0.00,CLR,,0.23,WeatherDisplay:10.37,2013-06-07 01:04:00,
2013-06-06 20:05:00,55.4,48.7,29.94,ENE,78,3.4,3.8,78,0.00,CLR,,0.23,WeatherDisplay:10.37,2013-06-07 01:05:00,
2013-06-06 20:07:00,55.4,48.7,29.94,NE,45,4.4,6.9,78,0.00,CLR,,0.23,WeatherDisplay:10.37,2013-06-07 01:07:00,
2013-06-06 20:08:00,55.3,48.6,29.94,East,88,2.2,5.8,78,0.00,CLR,,0.23,WeatherDisplay:10.37,2013-06-07 01:08:00,
2013-06-06 20:09:00,55.3,48.6,29.94,NE,42,1.9,4.6,78,0.00,CLR,,0.23,WeatherDisplay:10.37,2013-06-07 01:09:00,
2013-06-06 20:10:00,55.2,48.5,29.94,East,93,3.7,5.8,78,0.00,CLR,,0.23,WeatherDisplay:10.37,2013-06-07 01:10:00,
2013-06-06 20:12:00,55.2,48.5,29.94,East,86,2.8,4.6,78,0.00,CLR,,0.23,WeatherDisplay:10.37,2013-06-07 01:12:00,
2013-06-06 20:13:00,55.2,48.5,29.94,ENE,58,2.3,3.5,78,0.00,CLR,,0.23,WeatherDisplay:10.37,2013-06-07 01:13:00,
2013-06-06 20:14:00,55.2,48.5,29.94,North,353,1.8,2.3,78,0.00,CLR,,0.23,WeatherDisplay:10.37,2013-06-07 01:14:00,
2013-06-06 20:16:00,55.2,48.8,29.94,NE,42,2.0,3.9,79,0.00,CLR,,0.23,WeatherDisplay:10.37,2013-06-07 01:16:00,
2013-06-06 20:17:00,55.2,48.8,29.94,NE,55,1.9,3.5,79,0.00,CLR,,0.23,WeatherDisplay:10.37,2013-06-07 01:17:00,
2013-06-06 20:18:00,55.1,48.7,29.94,East,86,1.4,2.3,79,0.00,CLR,,0.23,WeatherDisplay:10.37,2013-06-07 01:18:00,
2013-06-06 20:19:00,55.1,48.7,29.94,SE,124,3.4,3.4,79,0.00,CLR,,0.23,WeatherDisplay:10.37,2013-06-07 01:19:00,
2013-06-06 20:20:00,55.1,48.7,29.94,NE,35,2.8,6.9,79,0.00,CLR,,0.23,WeatherDisplay:10.37,2013-06-07 01:20:00,
2013-06-06 20:21:00,55.1,48.7,29.94,East,85,1.8,3.5,79,0.00,CLR,,0.23,WeatherDisplay:10.37,2013-06-07 01:21:00,
2013-06-06 20:22:00,55.1,48.7,29.94,NE,47,1.9,3.5,79,0.00,CLR,,0.23,WeatherDisplay:10.37,2013-06-07 01:22:00,
2013-06-06 20:23:00,55.1,48.7,29.94,ESE,103,1.9,3.5,79,0.00,CLR,,0.23,WeatherDisplay:10.37,2013-06-07 01:23:00,
2013-06-06 20:24:00,55.1,48.7,29.94,East,82,1.7,3.5,79,0.00,CLR,,0.23,WeatherDisplay:10.37,2013-06-07 01:24:00,
2013-06-06 20:25:00,55.0,48.6,29.94,East,88,3.4,4.6,79,0.00,CLR,,0.23,WeatherDisplay:10.37,2013-06-07 01:25:00,
2013-06-06 20:27:00,55.1,48.7,29.94,East,88,2.8,4.6,79,0.00,CLR,,0.23,WeatherDisplay:10.37,2013-06-07 01:27:00,
2013-06-06 20:29:00,55.1,48.7,29.94,NNE,30,1.3,2.3,79,0.00,CLR,,0.23,WeatherDisplay:10.37,2013-06-07 01:29:00,
2013-06-06 20:30:00,55.0,48.6,29.94,NNE,16,2.9,3.7,79,0.00,CLR,,0.23,WeatherDisplay:10.37,2013-06-07 01:30:00,
2013-06-06 20:32:00,55.0,48.6,29.95,East,79,3.9,6.9,79,0.00,CLR,,0.23,WeatherDisplay:10.37,2013-06-07 01:32:00,
2013-06-06 20:34:00,54.9,48.5,29.95,ENE,66,1.6,3.5,79,0.00,CLR,,0.23,WeatherDisplay:10.37,2013-06-07 01:34:00,
2013-06-06 20:36:00,54.9,48.5,29.94,NE,44,3.0,4.6,79,0.00,CLR,,0.23,WeatherDisplay:10.37,2013-06-07 01:36:00,
2013-06-06 20:37:00,54.9,48.5,29.95,East,90,2.3,3.5,79,0.00,CLR,,0.23,WeatherDisplay:10.37,2013-06-07 01:37:00,
2013-06-06 20:38:00,55.0,48.6,29.94,NE,51,3.1,9.2,79,0.00,CLR,,0.23,WeatherDisplay:10.37,2013-06-07 01:38:00,
2013-06-06 20:39:00,54.9,48.5,29.94,NE,55,3.3,5.8,79,0.00,CLR,,0.23,WeatherDisplay:10.37,2013-06-07 01:39:00,
2013-06-06 20:42:00,54.8,48.7,29.94,NE,38,3.4,5.8,80,0.00,CLR,,0.23,WeatherDisplay:10.37,2013-06-07 01:42:00,
2013-06-06 20:43:00,54.8,48.7,29.94,East,89,2.7,3.5,80,0.00,CLR,,0.23,WeatherDisplay:10.37,2013-06-07 01:43:00,
2013-06-06 20:44:00,54.8,48.7,29.94,ENE,64,1.8,5.8,80,0.00,CLR,,0.23,WeatherDisplay:10.37,2013-06-07 01:44:00,
2013-06-06 20:47:00,54.7,48.6,29.94,NE,51,2.5,4.6,80,0.00,CLR,,0.23,WeatherDisplay:10.37,2013-06-07 01:47:00,
2013-06-06 20:48:00,54.7,48.6,29.94,NE,51,3.1,7.6,80,0.00,CLR,,0.24,WeatherDisplay:10.37,2013-06-07 01:48:00,
2013-06-06 20:49:00,54.7,48.6,29.94,East,82,2.9,4.6,80,0.01,RA,,0.24,WeatherDisplay:10.37,2013-06-07 01:49:00,
2013-06-06 20:50:00,54.7,48.6,29.94,ENE,66,2.2,4.6,80,0.01,RA,,0.24,WeatherDisplay:10.37,2013-06-07 01:50:00,
2013-06-06 20:52:00,54.7,48.6,29.94,NNE,31,3.8,6.9,80,0.01,RA,,0.24,WeatherDisplay:10.37,2013-06-07 01:52:00,
2013-06-06 20:53:00,54.6,48.6,29.94,East,89,2.0,8.1,80,0.01,RA,,0.24,WeatherDisplay:10.37,2013-06-07 01:53:00,
2013-06-06 20:55:00,54.6,48.6,29.94,ESE,114,2.7,5.8,80,0.01,RA,,0.24,WeatherDisplay:10.37,2013-06-07 01:55:00,
2013-06-06 20:57:00,54.5,48.5,29.94,East,83,2.1,2.4,80,0.01,RA,,0.24,WeatherDisplay:10.37,2013-06-07 01:57:00,
2013-06-06 20:58:00,54.5,48.5,29.94,ESE,102,2.4,4.6,80,0.01,RA,,0.24,WeatherDisplay:10.37,2013-06-07 01:58:00,
2013-06-06 21:00:00,54.5,48.5,29.94,North,8,1.1,3.5,80,0.01,,,0.24,WeatherDisplay:10.37,2013-06-07 02:00:00,
2013-06-06 21:03:00,54.5,48.5,29.94,ENE,69,4.6,7.6,80,0.01,CLR,,0.24,WeatherDisplay:10.37,2013-06-07 02:03:00,
2013-06-06 21:04:00,54.4,48.4,29.94,NNE,31,3.7,8.1,80,0.01,CLR,,0.24,WeatherDisplay:10.37,2013-06-07 02:04:00,
2013-06-06 21:05:00,54.4,48.4,29.94,SE,134,3.8,4.6,80,0.01,CLR,,0.24,WeatherDisplay:10.37,2013-06-07 02:05:00,
2013-06-06 21:08:00,54.3,48.3,29.94,NE,49,2.9,5.8,80,0.01,CLR,,0.24,WeatherDisplay:10.37,2013-06-07 02:08:00,
2013-06-06 21:09:00,54.2,48.2,29.94,ENE,66,2.6,3.9,80,0.01,CLR,,0.24,WeatherDisplay:10.37,2013-06-07 02:09:00,
2013-06-06 21:10:00,54.3,48.3,29.94,North,353,2.9,5.8,80,0.01,CLR,,0.24,WeatherDisplay:10.37,2013-06-07 02:10:00,
2013-06-06 21:11:00,54.2,48.2,29.94,NE,37,3.6,6.2,80,0.01,CLR,,0.24,WeatherDisplay:10.37,2013-06-07 02:11:00,
2013-06-06 21:13:00,54.2,48.2,29.94,East,90,2.7,4.6,80,0.01,CLR,,0.24,WeatherDisplay:10.37,2013-06-07 02:13:00,
2013-06-06 21:14:00,54.2,48.2,29.95,ESE,102,2.0,4.6,80,0.01,CLR,,0.24,WeatherDisplay:10.37,2013-06-07 02:14:00,
2013-06-06 21:15:00,54.2,48.2,29.94,NNE,25,1.8,3.5,80,0.01,CLR,,0.24,WeatherDisplay:10.37,2013-06-07 02:15:00,
2013-06-06 21:16:00,54.1,48.1,29.95,East,88,3.0,4.6,80,0.01,CLR,,0.24,WeatherDisplay:10.37,2013-06-07 02:16:00,
2013-06-06 21:18:00,54.2,48.2,29.95,East,86,1.4,4.6,80,0.01,CLR,,0.24,WeatherDisplay:10.37,2013-06-07 02:18:00,
2013-06-06 21:19:00,54.0,48.0,29.95,ENE,72,0.2,3.0,80,0.01,CLR,,0.24,WeatherDisplay:10.37,2013-06-07 02:19:00,
2013-06-06 21:21:00,54.0,48.0,29.95,NE,48,1.4,3.5,80,0.01,CLR,,0.24,WeatherDisplay:10.37,2013-06-07 02:21:00,
2013-06-06 21:23:00,54.0,48.0,29.95,NE,48,2.4,5.8,80,0.01,CLR,,0.24,WeatherDisplay:10.37,2013-06-07 02:23:00,
2013-06-06 21:24:00,54.0,48.0,29.95,ESE,121,2.3,5.8,80,0.01,CLR,,0.24,WeatherDisplay:10.37,2013-06-07 02:24:00,
2013-06-06 21:25:00,54.0,48.0,29.95,NE,35,2.4,4.6,80,0.01,CLR,,0.24,WeatherDisplay:10.37,2013-06-07 02:25:00,
2013-06-06 21:26:00,54.0,48.0,29.95,NE,38,2.0,3.5,80,0.01,CLR,,0.24,WeatherDisplay:10.37,2013-06-07 02:26:00,
2013-06-06 21:27:00,54.0,48.0,29.95,East,89,2.1,4.9,80,0.01,CLR,,0.24,WeatherDisplay:10.37,2013-06-07 02:27:00,
2013-06-06 21:29:00,53.9,47.9,29.95,ESE,104,2.5,4.7,80,0.01,CLR,,0.24,WeatherDisplay:10.37,2013-06-07 02:29:00,
2013-06-06 21:30:00,53.9,47.9,29.95,NE,51,2.2,4.6,80,0.01,CLR,,0.24,WeatherDisplay:10.37,2013-06-07 02:30:00,
2013-06-06 21:32:00,53.9,47.9,29.95,NE,40,2.8,4.6,80,0.01,CLR,,0.24,WeatherDisplay:10.37,2013-06-07 02:32:00,
2013-06-06 21:34:00,53.8,47.8,29.95,NE,56,3.5,5.8,80,0.01,CLR,,0.24,WeatherDisplay:10.37,2013-06-07 02:34:00,
2013-06-06 21:35:00,53.8,47.8,29.95,NE,44,1.2,4.6,80,0.01,CLR,,0.24,WeatherDisplay:10.37,2013-06-07 02:35:00,
2013-06-06 21:37:00,53.8,47.8,29.95,ENE,62,2.3,2.3,80,0.01,CLR,,0.24,WeatherDisplay:10.37,2013-06-07 02:37:00,
2013-06-06 21:39:00,53.8,47.8,29.95,SE,136,3.3,6.9,80,0.01,CLR,,0.24,WeatherDisplay:10.37,2013-06-07 02:39:00,
2013-06-06 21:40:00,53.7,47.7,29.95,NE,41,3.5,5.8,80,0.01,CLR,,0.24,WeatherDisplay:10.37,2013-06-07 02:40:00,
2013-06-06 21:42:00,53.7,47.7,29.95,NE,34,2.0,3.5,80,0.01,CLR,,0.24,WeatherDisplay:10.37,2013-06-07 02:42:00,
2013-06-06 21:44:00,53.6,47.6,29.95,ESE,103,2.6,4.6,80,0.01,CLR,,0.24,WeatherDisplay:10.37,2013-06-07 02:44:00,
2013-06-06 21:45:00,53.6,47.6,29.95,North,360,2.5,5.8,80,0.01,CLR,,0.24,WeatherDisplay:10.37,2013-06-07 02:45:00,
2013-06-06 21:47:00,53.5,47.5,29.95,East,89,3.0,4.6,80,0.01,CLR,,0.24,WeatherDisplay:10.37,2013-06-07 02:47:00,
2013-06-06 21:50:00,53.6,47.6,29.95,NE,47,2.2,5.8,80,0.00,CLR,,0.24,WeatherDisplay:10.37,2013-06-07 02:50:00,
2013-06-06 21:51:00,53.4,47.4,29.95,ENE,59,1.9,2.8,80,0.00,CLR,,0.24,WeatherDisplay:10.37,2013-06-07 02:51:00,
2013-06-06 21:52:00,53.4,47.4,29.95,East,97,4.0,5.8,80,0.00,CLR,,0.24,WeatherDisplay:10.37,2013-06-07 02:52:00,
2013-06-06 21:53:00,53.4,47.4,29.95,NE,44,2.4,5.8,80,0.00,CLR,,0.24,WeatherDisplay:10.37,2013-06-07 02:53:00,
2013-06-06 21:55:00,53.5,47.5,29.95,NE,38,1.7,2.7,80,0.00,CLR,,0.24,WeatherDisplay:10.37,2013-06-07 02:55:00,
2013-06-06 21:56:00,53.3,47.3,29.95,NNE,32,3.7,6.9,80,0.00,CLR,,0.24,WeatherDisplay:10.37,2013-06-07 02:56:00,
2013-06-06 21:58:00,53.2,47.2,29.95,East,96,1.9,4.6,80,0.00,CLR,,0.24,WeatherDisplay:10.37,2013-06-07 02:58:00,
2013-06-06 22:00:00,53.3,47.3,29.95,NE,45,3.8,5.8,80,0.00,CLR,,0.24,WeatherDisplay:10.37,2013-06-07 03:00:00,
2013-06-06 22:02:00,53.2,47.2,29.95,ENE,73,3.9,5.8,80,0.00,CLR,,0.24,WeatherDisplay:10.37,2013-06-07 03:02:00,
2013-06-06 22:03:00,53.2,47.2,29.95,East,79,2.2,5.8,80,0.00,CLR,,0.24,WeatherDisplay:10.37,2013-06-07 03:03:00,
2013-06-06 22:05:00,53.2,47.2,29.95,NE,35,4.3,6.2,80,0.00,CLR,,0.24,WeatherDisplay:10.37,2013-06-07 03:05:00,
2013-06-06 22:07:00,53.1,47.1,29.95,East,95,3.9,5.7,80,0.00,CLR,,0.24,WeatherDisplay:10.37,2013-06-07 03:07:00,
2013-06-06 22:08:00,53.1,47.1,29.95,NE,42,4.9,6.9,80,0.00,CLR,,0.24,WeatherDisplay:10.37,2013-06-07 03:08:00,
2013-06-06 22:09:00,53.1,47.1,29.95,ESE,110,3.9,5.8,80,0.00,CLR,,0.24,WeatherDisplay:10.37,2013-06-07 03:09:00,
2013-06-06 22:10:00,53.0,47.0,29.95,East,92,2.0,4.6,80,0.00,CLR,,0.24,WeatherDisplay:10.37,2013-06-07 03:10:00,
2013-06-06 22:13:00,53.0,47.0,29.95,ESE,123,1.8,4.6,80,0.00,CLR,,0.24,WeatherDisplay:10.37,2013-06-07 03:13:00,
2013-06-06 22:14:00,53.0,47.0,29.95,East,97,2.3,4.0,80,0.00,CLR,,0.24,WeatherDisplay:10.37,2013-06-07 03:14:00,
2013-06-06 22:15:00,53.0,47.0,29.95,East,86,2.7,5.8,80,0.00,CLR,,0.24,WeatherDisplay:10.37,2013-06-07 03:15:00,
2013-06-06 22:16:00,53.0,47.0,29.95,NE,56,2.7,3.9,80,0.00,CLR,,0.24,WeatherDisplay:10.37,2013-06-07 03:16:00,
2013-06-06 22:18:00,53.0,47.0,29.95,NE,40,3.1,5.8,80,0.00,CLR,,0.24,WeatherDisplay:10.37,2013-06-07 03:18:00,
2013-06-06 22:19:00,53.0,47.0,29.95,ENE,76,1.1,2.3,80,0.00,CLR,,0.24,WeatherDisplay:10.37,2013-06-07 03:19:00,
2013-06-06 22:20:00,52.9,46.9,29.95,East,82,0.3,2.3,80,0.00,CLR,,0.24,WeatherDisplay:10.37,2013-06-07 03:20:00,
2013-06-06 22:21:00,52.9,46.9,29.95,NNE,13,0.7,2.3,80,0.00,CLR,,0.24,WeatherDisplay:10.37,2013-06-07 03:21:00,
2013-06-06 22:23:00,52.9,46.9,29.95,North,360,2.6,3.5,80,0.00,CLR,,0.24,WeatherDisplay:10.37,2013-06-07 03:23:00,
2013-06-06 22:25:00,52.9,46.9,29.95,ENE,61,2.7,4.0,80,0.00,CLR,,0.24,WeatherDisplay:10.37,2013-06-07 03:25:00,
2013-06-06 22:27:00,52.8,46.8,29.95,SE,144,3.0,5.0,80,0.00,CLR,,0.24,WeatherDisplay:10.37,2013-06-07 03:27:00,
2013-06-06 22:28:00,52.9,46.9,29.95,NE,40,3.7,6.9,80,0.00,CLR,,0.24,WeatherDisplay:10.37,2013-06-07 03:28:00,
2013-06-06 22:30:00,52.8,46.8,29.95,ENE,66,2.9,4.6,80,0.00,CLR,,0.24,WeatherDisplay:10.37,2013-06-07 03:30:00,
2013-06-06 22:31:00,52.8,46.8,29.95,ENE,64,2.9,4.6,80,0.00,CLR,,0.24,WeatherDisplay:10.37,2013-06-07 03:31:00,
2013-06-06 22:32:00,52.8,46.5,29.95,ESE,103,2.3,3.5,79,0.00,CLR,,0.24,WeatherDisplay:10.37,2013-06-07 03:32:00,
2013-06-06 22:33:00,52.8,46.5,29.95,East,90,1.6,3.5,79,0.00,CLR,,0.24,WeatherDisplay:10.37,2013-06-07 03:33:00,
2013-06-06 22:36:00,52.7,46.4,29.95,ENE,65,2.4,4.8,79,0.00,CLR,,0.24,WeatherDisplay:10.37,2013-06-07 03:36:00,
2013-06-06 22:37:00,52.7,46.4,29.95,East,88,2.3,5.8,79,0.00,CLR,,0.24,WeatherDisplay:10.37,2013-06-07 03:37:00,
2013-06-06 22:38:00,52.7,46.4,29.95,East,88,3.4,4.6,79,0.00,CLR,,0.24,WeatherDisplay:10.37,2013-06-07 03:38:00,
2013-06-06 22:39:00,52.8,46.5,29.95,ESE,116,2.8,6.9,79,0.00,CLR,,0.24,WeatherDisplay:10.37,2013-06-07 03:39:00,
2013-06-06 22:41:00,52.7,46.4,29.95,NNE,24,1.1,3.5,79,0.00,CLR,,0.24,WeatherDisplay:10.37,2013-06-07 03:41:00,
2013-06-06 22:42:00,52.7,46.4,29.95,NE,47,1.5,3.5,79,0.00,CLR,,0.24,WeatherDisplay:10.37,2013-06-07 03:42:00,
2013-06-06 22:44:00,52.7,46.4,29.95,NNW,333,0.6,2.3,79,0.00,CLR,,0.24,WeatherDisplay:10.37,2013-06-07 03:44:00,
2013-06-06 22:46:00,52.7,46.4,29.95,North,8,1.5,2.3,79,0.00,CLR,,0.24,WeatherDisplay:10.37,2013-06-07 03:46:00,
2013-06-06 22:47:00,52.7,46.4,29.95,NNE,20,1.5,2.3,79,0.00,CLR,,0.24,WeatherDisplay:10.37,2013-06-07 03:47:00,
2013-06-06 22:49:00,52.7,46.4,29.95,WNW,299,1.2,2.3,79,0.00,CLR,,0.24,WeatherDisplay:10.37,2013-06-07 03:49:00,
2013-06-06 22:52:00,52.6,46.3,29.95,NNE,28,0.9,2.3,79,0.00,CLR,,0.24,WeatherDisplay:10.37,2013-06-07 03:52:00,
2013-06-06 22:54:00,52.7,46.4,29.95,NE,55,1.7,4.6,79,0.00,CLR,,0.24,WeatherDisplay:10.37,2013-06-07 03:54:00,
2013-06-06 22:57:00,52.6,46.3,29.95,NW,326,1.7,3.4,79,0.00,CLR,,0.24,WeatherDisplay:10.37,2013-06-07 03:57:00,
2013-06-06 22:58:00,52.6,46.3,29.95,NE,49,0.8,4.6,79,0.00,CLR,,0.24,WeatherDisplay:10.37,2013-06-07 03:58:00,
2013-06-06 22:59:00,52.6,46.3,29.95,NE,45,0.9,3.5,79,0.00,CLR,,0.24,WeatherDisplay:10.37,2013-06-07 03:59:00,
2013-06-06 23:01:00,52.6,46.3,29.95,NE,56,2.4,4.6,79,0.00,CLR,,0.24,WeatherDisplay:10.37,2013-06-07 04:01:00,
2013-06-06 23:02:00,52.6,46.3,29.95,NE,48,2.1,3.5,79,0.00,CLR,,0.24,WeatherDisplay:10.37,2013-06-07 04:02:00,
2013-06-06 23:06:00,52.5,46.2,29.95,NNE,24,1.8,2.3,79,0.00,CLR,,0.24,WeatherDisplay:10.37,2013-06-07 04:06:00,
2013-06-06 23:07:00,52.5,46.2,29.95,NE,41,1.7,3.4,79,0.00,CLR,,0.24,WeatherDisplay:10.37,2013-06-07 04:07:00,
2013-06-06 23:11:00,52.5,46.2,29.95,NE,56,2.7,4.7,79,0.00,CLR,,0.24,WeatherDisplay:10.37,2013-06-07 04:11:00,
2013-06-06 23:12:00,52.6,46.3,29.95,NE,55,3.0,4.6,79,0.00,CLR,,0.24,WeatherDisplay:10.37,2013-06-07 04:12:00,
2013-06-06 23:16:00,52.5,46.2,29.95,North,11,1.1,3.5,79,0.00,CLR,,0.24,WeatherDisplay:10.37,2013-06-07 04:16:00,
2013-06-06 23:17:00,52.5,46.2,29.95,NE,48,0.7,2.3,79,0.00,CLR,,0.24,WeatherDisplay:10.37,2013-06-07 04:17:00,
2013-06-06 23:18:00,52.5,46.2,29.95,NNE,16,0.9,2.3,79,0.00,CLR,,0.24,WeatherDisplay:10.37,2013-06-07 04:18:00,
2013-06-06 23:21:00,52.5,46.2,29.95,NE,51,2.3,3.5,79,0.00,CLR,,0.24,WeatherDisplay:10.37,2013-06-07 04:21:00,
2013-06-06 23:22:00,52.5,46.2,29.95,NNE,20,2.3,3.5,79,0.00,CLR,,0.24,WeatherDisplay:10.37,2013-06-07 04:22:00,
2013-06-06 23:24:00,52.5,46.2,29.95,NNE,14,2.0,3.5,79,0.00,CLR,,0.24,WeatherDisplay:10.37,2013-06-07 04:24:00,
2013-06-06 23:27:00,52.4,46.1,29.95,NE,42,1.3,3.5,79,0.00,CLR,,0.24,WeatherDisplay:10.37,2013-06-07 04:27:00,
2013-06-06 23:28:00,52.4,46.1,29.95,NNW,333,1.3,2.3,79,0.00,CLR,,0.24,WeatherDisplay:10.37,2013-06-07 04:28:00,
2013-06-06 23:30:00,52.5,46.2,29.95,NE,35,1.0,2.3,79,0.00,CLR,,0.24,WeatherDisplay:10.37,2013-06-07 04:30:00,
2013-06-06 23:32:00,52.5,46.2,29.95,NNE,30,2.2,3.6,79,0.00,CLR,,0.24,WeatherDisplay:10.37,2013-06-07 04:32:00,
2013-06-06 23:33:00,52.5,46.2,29.95,North,360,1.9,3.5,79,0.00,CLR,,0.24,WeatherDisplay:10.37,2013-06-07 04:33:00,
2013-06-06 23:35:00,52.4,46.1,29.95,NE,44,0.5,1.6,79,0.00,CLR,,0.24,WeatherDisplay:10.37,2013-06-07 04:35:00,
2013-06-06 23:37:00,52.4,46.1,29.95,NNE,31,1.2,3.5,79,0.00,CLR,,0.24,WeatherDisplay:10.37,2013-06-07 04:37:00,
2013-06-06 23:38:00,52.4,46.1,29.95,NNE,24,1.5,3.1,79,0.00,CLR,,0.24,WeatherDisplay:10.37,2013-06-07 04:38:00,
2013-06-06 23:39:00,52.4,46.1,29.95,East,89,2.3,4.4,79,0.00,CLR,,0.24,WeatherDisplay:10.37,2013-06-07 04:39:00,
2013-06-06 23:40:00,52.3,46.0,29.95,ENE,65,3.2,4.6,79,0.00,CLR,,0.24,WeatherDisplay:10.37,2013-06-07 04:40:00,
2013-06-06 23:42:00,52.3,46.0,29.95,NNE,28,1.2,5.1,79,0.00,CLR,,0.24,WeatherDisplay:10.37,2013-06-07 04:42:00,
2013-06-06 23:43:00,52.4,46.1,29.95,NE,56,2.7,5.8,79,0.00,CLR,,0.24,WeatherDisplay:10.37,2013-06-07 04:43:00,
2013-06-06 23:44:00,52.3,46.0,29.95,ENE,58,1.4,3.5,79,0.00,CLR,,0.24,WeatherDisplay:10.37,2013-06-07 04:44:00,
2013-06-06 23:45:00,52.3,46.0,29.95,NE,47,1.2,2.3,79,0.00,CLR,,0.24,WeatherDisplay:10.37,2013-06-07 04:45:00,
2013-06-06 23:47:00,52.3,46.0,29.95,NNE,13,2.0,2.3,79,0.00,CLR,,0.24,WeatherDisplay:10.37,2013-06-07 04:47:00,
2013-06-06 23:48:00,52.3,46.0,29.95,NE,52,1.8,3.5,79,0.00,CLR,,0.24,WeatherDisplay:10.37,2013-06-07 04:48:00,
2013-06-06 23:49:00,52.2,45.9,29.95,NNE,20,1.6,2.3,79,0.00,CLR,,0.24,WeatherDisplay:10.37,2013-06-07 04:49:00,
2013-06-06 23:50:00,52.3,46.0,29.95,NE,40,1.8,3.5,79,0.00,CLR,,0.24,WeatherDisplay:10.37,2013-06-07 04:50:00,
2013-06-06 23:53:00,52.3,46.0,29.95,NE,45,1.9,2.3,79,0.00,CLR,,0.24,WeatherDisplay:10.37,2013-06-07 04:53:00,
2013-06-06 23:54:00,52.3,46.0,29.95,ENE,65,0.6,2.3,79,0.00,CLR,,0.24,WeatherDisplay:10.37,2013-06-07 04:54:00,
2013-06-06 23:55:00,52.2,45.9,29.95,NE,44,1.5,3.2,79,0.00,CLR,,0.24,WeatherDisplay:10.37,2013-06-07 04:55:00,
2013-06-06 23:58:00,52.2,45.9,29.95,North,3,0.3,1.4,79,0.00,CLR,,0.24,WeatherDisplay:10.37,2013-06-07 04:58:00,
2013-06-06 23:59:00,52.2,45.9,29.95,North,8,1.6,2.3,79,0.00,RA,,0.00,WeatherDisplay:10.37,2013-06-07 04:59:00,